Dirección General De Aeronáutica Civil

Dirección Meteorológica de Chile - Servicios Climáticos

Informe General de Control de Calidad de la Estación

Listado de niveles de control de calidad para algunos parámetros
Estación San Esteban (320102)
Fecha de Revisión de los datos :

Elementos

Registros Niveles de Control Total
Nivel 0 Nivel 1 Nivel 2 Nivel 3 Errores Porcentaje
01 Temperatura del Aire Seco 119.628 0 . 0 . 0 . 0 . 0 0.00 %
02 Temperatura de Rocío 119.388 0 . 0 . 0 . 0 . 0 0.00 %
03 Humedad Relativa del Aire 119.656 0 . 0 . 0 . 0 . 0 0.00 %
04 Temperatura Máxima PM 1.428 0 . 0 . 0 . 0 . 0 0.00 %
05 Temperatura Mínima AM 1.325 0 . 0 . 0 . 0 . 0 0.00 %
06 Agua Caida, Acumulada 6 Horas 21.025 0 . 0 . 0 . 0 . 0 0.00 %
07 Presión Atm. a Nivel de Estación (QFE) 119.584 0 . 45.268 37.85 % 0 . 0 . 45.268 37.85 %
08 Presión Atm. a Nivel Medio del Mar (QFF) 80.740 0 . 0 . 0 . 0 . 0 0.00 %
09 Presión Atm. Estándar OACI (QNH) 24.077 0 . 0 . 0 . 0 . 0 0.00 %

Totales

606.851 . 0.0000 % . 7.4595 % . 0.0000 % . 0.0000 % 45,268 7.4595 %

Detalle de Errores Encontrados

Nivel Fecha del Dato Descripción Información Error Fecha Ingreso
1 2010-01-20 06:00:00 qfe debe ser menor o igual a qff 1010.9 - 1009.7 2023-11-08 02:52:00
1 2010-01-20 07:00:00 qfe debe ser menor o igual a qff 1011.3 - 1009.5 2023-11-08 02:52:00
1 2010-01-20 08:00:00 qfe debe ser menor o igual a qff 1011.5 - 1008.9 2023-11-08 02:52:00
1 2010-01-20 09:00:00 qfe debe ser menor o igual a qff 1011.2 - 1008.6 2023-11-08 02:52:00
1 2010-02-20 21:00:00 qfe debe ser menor o igual a qff 1010.1 - 1006.4 2023-11-08 02:53:00
1 2010-02-20 22:00:00 qfe debe ser menor o igual a qff 1010.5 - 1006.3 2023-11-08 02:53:00
1 2010-02-20 23:00:00 qfe debe ser menor o igual a qff 1010.7 - 1006.4 2023-11-08 02:53:00
1 2010-02-21 00:00:00 qfe debe ser menor o igual a qff 1010.3 - 1006.7 2023-11-08 02:53:00
1 2010-02-21 01:00:00 qfe debe ser menor o igual a qff 1009.9 - 1007.5 2023-11-08 02:53:00
1 2010-02-21 02:00:00 qfe debe ser menor o igual a qff 1009.3 - 1008.0 2023-11-08 02:53:00
1 2010-02-21 03:00:00 qfe debe ser menor o igual a qff 1009.1 - 1008.4 2023-11-08 02:53:00
1 2010-02-21 04:00:00 qfe debe ser menor o igual a qff 1009.0 - 1008.3 2023-11-08 02:53:00
1 2010-02-21 05:00:00 qfe debe ser menor o igual a qff 1009.1 - 1008.2 2023-11-08 02:53:00
1 2010-02-21 06:00:00 qfe debe ser menor o igual a qff 1009.1 - 1007.6 2023-11-08 02:53:00
1 2010-02-21 07:00:00 qfe debe ser menor o igual a qff 1009.6 - 1007.3 2023-11-08 02:53:00
1 2010-02-21 09:00:00 qfe debe ser menor o igual a qff 1010.6 - 1007.3 2023-11-08 02:53:00
1 2010-02-21 10:00:00 qfe debe ser menor o igual a qff 1010.5 - 1007.2 2023-11-08 02:53:00
1 2010-02-21 11:00:00 qfe debe ser menor o igual a qff 1010.4 - 1007.7 2023-11-08 02:53:00
1 2010-02-21 12:00:00 qfe debe ser menor o igual a qff 1010.3 - 1008.2 2023-11-08 02:53:00
1 2010-02-21 13:00:00 qfe debe ser menor o igual a qff 1010.4 - 1008.7 2023-11-08 02:53:00
1 2010-02-21 14:00:00 qfe debe ser menor o igual a qff 1010.3 - 1008.6 2023-11-08 02:53:00
1 2010-02-21 15:00:00 qfe debe ser menor o igual a qff 1010.2 - 1008.3 2023-11-08 02:53:00
1 2010-02-21 16:00:00 qfe debe ser menor o igual a qff 1009.9 - 1008.3 2023-11-08 02:53:00
1 2010-02-21 17:00:00 qfe debe ser menor o igual a qff 1009.7 - 1008.2 2023-11-08 02:53:00
1 2010-02-21 18:00:00 qfe debe ser menor o igual a qff 1009.6 - 1008.3 2023-11-08 02:53:00
1 2010-02-21 19:00:00 qfe debe ser menor o igual a qff 1009.9 - 1008.0 2023-11-08 02:53:00
1 2010-02-21 20:00:00 qfe debe ser menor o igual a qff 1010.3 - 1007.8 2023-11-08 02:53:00
1 2010-02-21 21:00:00 qfe debe ser menor o igual a qff 1011.0 - 1007.6 2023-11-08 02:53:00
1 2010-02-21 22:00:00 qfe debe ser menor o igual a qff 1011.7 - 1007.5 2023-11-08 02:53:00
1 2010-02-21 23:00:00 qfe debe ser menor o igual a qff 1012.2 - 1007.5 2023-11-08 02:53:00
1 2010-02-22 00:00:00 qfe debe ser menor o igual a qff 1012.0 - 1007.9 2023-11-08 02:53:00
1 2010-02-22 01:00:00 qfe debe ser menor o igual a qff 1011.9 - 1008.3 2023-11-08 02:53:00
1 2010-02-22 02:00:00 qfe debe ser menor o igual a qff 1012.2 - 1008.9 2023-11-08 02:53:00
1 2010-02-22 03:00:00 qfe debe ser menor o igual a qff 1012.3 - 1009.9 2023-11-08 02:53:00
1 2010-02-22 04:00:00 qfe debe ser menor o igual a qff 1012.5 - 1010.1 2023-11-08 02:53:00
1 2010-02-22 05:00:00 qfe debe ser menor o igual a qff 1012.5 - 1009.9 2023-11-08 02:53:00
1 2010-02-22 06:00:00 qfe debe ser menor o igual a qff 1013.0 - 1010.0 2023-11-08 02:53:00
1 2010-02-22 07:00:00 qfe debe ser menor o igual a qff 1013.7 - 1010.4 2023-11-08 02:53:00
1 2010-02-22 08:00:00 qfe debe ser menor o igual a qff 1014.0 - 1010.9 2023-11-08 02:53:00
1 2010-02-22 09:00:00 qfe debe ser menor o igual a qff 1014.5 - 1011.3 2023-11-08 02:53:00
1 2010-02-22 10:00:00 qfe debe ser menor o igual a qff 1015.1 - 1011.0 2023-11-08 02:53:00
1 2010-02-22 11:00:00 qfe debe ser menor o igual a qff 1015.1 - 1011.5 2023-11-08 02:53:00
1 2010-02-22 12:00:00 qfe debe ser menor o igual a qff 1014.7 - 1012.2 2023-11-08 02:53:00
1 2010-02-22 13:00:00 qfe debe ser menor o igual a qff 1014.5 - 1012.4 2023-11-08 02:53:00
1 2010-02-22 14:00:00 qfe debe ser menor o igual a qff 1014.1 - 1012.5 2023-11-08 02:53:00
1 2010-02-22 15:00:00 qfe debe ser menor o igual a qff 1013.6 - 1013.0 2023-11-08 02:53:00
1 2010-02-22 16:00:00 qfe debe ser menor o igual a qff 1013.2 - 1013.1 2023-11-08 02:53:00
1 2010-02-22 17:00:00 qfe debe ser menor o igual a qff 1013.3 - 1012.6 2023-11-08 02:53:00
1 2010-02-22 18:00:00 qfe debe ser menor o igual a qff 1013.2 - 1012.3 2023-11-08 02:53:00
1 2010-02-22 19:00:00 qfe debe ser menor o igual a qff 1013.3 - 1011.9 2023-11-08 02:53:00
1 2010-02-22 20:00:00 qfe debe ser menor o igual a qff 1013.6 - 1011.3 2023-11-08 02:53:00
1 2010-02-22 21:00:00 qfe debe ser menor o igual a qff 1014.0 - 1011.1 2023-11-08 02:53:00
1 2010-02-22 22:00:00 qfe debe ser menor o igual a qff 1014.1 - 1011.0 2023-11-08 02:53:00
1 2010-02-22 23:00:00 qfe debe ser menor o igual a qff 1013.8 - 1011.4 2023-11-08 02:53:00
1 2010-02-23 00:00:00 qfe debe ser menor o igual a qff 1013.0 - 1011.5 2023-11-08 02:53:00
1 2010-02-23 01:00:00 qfe debe ser menor o igual a qff 1012.6 - 1011.8 2023-11-08 02:53:00
1 2010-02-23 07:00:00 qfe debe ser menor o igual a qff 1011.3 - 1010.4 2023-11-08 02:53:00
1 2010-02-23 08:00:00 qfe debe ser menor o igual a qff 1011.7 - 1010.0 2023-11-08 02:53:00
1 2010-02-23 09:00:00 qfe debe ser menor o igual a qff 1012.1 - 1009.7 2023-11-08 02:53:00
1 2010-02-23 10:00:00 qfe debe ser menor o igual a qff 1012.1 - 1009.5 2023-11-08 02:53:00
1 2010-02-23 11:00:00 qfe debe ser menor o igual a qff 1012.0 - 1009.7 2023-11-08 02:53:00
1 2010-02-23 12:00:00 qfe debe ser menor o igual a qff 1011.7 - 1009.9 2023-11-08 02:53:00
1 2010-02-23 13:00:00 qfe debe ser menor o igual a qff 1011.4 - 1010.4 2023-11-08 02:53:00
1 2010-02-23 14:00:00 qfe debe ser menor o igual a qff 1011.4 - 1010.2 2023-11-08 02:53:00
1 2010-02-23 15:00:00 qfe debe ser menor o igual a qff 1011.0 - 1010.2 2023-11-08 02:53:00
1 2010-02-23 16:00:00 qfe debe ser menor o igual a qff 1010.4 - 1010.1 2023-11-08 02:53:00
1 2010-02-23 17:00:00 qfe debe ser menor o igual a qff 1010.1 - 1009.8 2023-11-08 02:53:00
1 2010-02-23 18:00:00 qfe debe ser menor o igual a qff 1009.9 - 1009.5 2023-11-08 02:53:00
1 2010-02-23 19:00:00 qfe debe ser menor o igual a qff 1010.0 - 1009.2 2023-11-08 02:53:00
1 2010-02-23 20:00:00 qfe debe ser menor o igual a qff 1010.5 - 1008.7 2023-11-08 02:53:00
1 2010-02-23 21:00:00 qfe debe ser menor o igual a qff 1011.2 - 1008.4 2023-11-08 02:53:00
1 2010-02-23 22:00:00 qfe debe ser menor o igual a qff 1011.4 - 1008.0 2023-11-08 02:53:00
1 2010-02-23 23:00:00 qfe debe ser menor o igual a qff 1011.6 - 1007.9 2023-11-08 02:53:00
1 2010-02-24 00:00:00 qfe debe ser menor o igual a qff 1011.8 - 1008.1 2023-11-08 02:53:00
1 2010-02-24 01:00:00 qfe debe ser menor o igual a qff 1012.2 - 1008.7 2023-11-08 02:53:00
1 2010-02-24 02:00:00 qfe debe ser menor o igual a qff 1012.1 - 1009.2 2023-11-08 02:53:00
1 2010-02-24 03:00:00 qfe debe ser menor o igual a qff 1011.8 - 1009.7 2023-11-08 02:53:00
1 2010-02-24 04:00:00 qfe debe ser menor o igual a qff 1011.5 - 1009.8 2023-11-08 02:53:00
1 2010-02-24 05:00:00 qfe debe ser menor o igual a qff 1011.3 - 1010.1 2023-11-08 02:53:00
1 2010-02-24 06:00:00 qfe debe ser menor o igual a qff 1011.7 - 1010.6 2023-11-08 02:53:00
1 2010-02-24 07:00:00 qfe debe ser menor o igual a qff 1012.4 - 1010.3 2023-11-08 02:53:00
1 2010-02-24 08:00:00 qfe debe ser menor o igual a qff 1013.1 - 1010.2 2023-11-08 02:53:00
1 2010-02-24 09:00:00 qfe debe ser menor o igual a qff 1013.6 - 1009.8 2023-11-08 02:53:00
1 2010-02-24 10:00:00 qfe debe ser menor o igual a qff 1013.7 - 1009.9 2023-11-08 02:53:00
1 2010-02-24 11:00:00 qfe debe ser menor o igual a qff 1013.3 - 1010.4 2023-11-08 02:53:00
1 2010-02-24 12:00:00 qfe debe ser menor o igual a qff 1012.8 - 1011.2 2023-11-08 02:53:00
1 2010-02-24 13:00:00 qfe debe ser menor o igual a qff 1012.6 - 1011.5 2023-11-08 02:53:00
1 2010-02-24 14:00:00 qfe debe ser menor o igual a qff 1012.1 - 1011.5 2023-11-08 02:53:00
1 2010-02-24 18:00:00 qfe debe ser menor o igual a qff 1010.5 - 1010.2 2023-11-08 02:53:00
1 2010-02-24 19:00:00 qfe debe ser menor o igual a qff 1010.6 - 1009.6 2023-11-08 02:53:00
1 2010-02-24 20:00:00 qfe debe ser menor o igual a qff 1011.0 - 1009.0 2023-11-08 02:53:00
1 2010-02-24 21:00:00 qfe debe ser menor o igual a qff 1011.9 - 1008.4 2023-11-08 02:53:00
1 2010-02-24 22:00:00 qfe debe ser menor o igual a qff 1012.4 - 1008.3 2023-11-08 02:53:00
1 2010-02-24 23:00:00 qfe debe ser menor o igual a qff 1012.6 - 1008.3 2023-11-08 02:53:00
1 2010-02-25 00:00:00 qfe debe ser menor o igual a qff 1012.9 - 1008.3 2023-11-08 02:53:00
1 2010-02-25 01:00:00 qfe debe ser menor o igual a qff 1013.1 - 1008.7 2023-11-08 02:53:00
1 2010-02-25 02:00:00 qfe debe ser menor o igual a qff 1013.0 - 1009.7 2023-11-08 02:53:00
1 2010-02-25 03:00:00 qfe debe ser menor o igual a qff 1013.0 - 1010.2 2023-11-08 02:53:00
1 2010-02-25 04:00:00 qfe debe ser menor o igual a qff 1013.0 - 1010.5 2023-11-08 02:53:00
1 2010-02-25 05:00:00 qfe debe ser menor o igual a qff 1013.3 - 1011.2 2023-11-08 02:53:00
1 2010-02-25 06:00:00 qfe debe ser menor o igual a qff 1013.9 - 1011.1 2023-11-08 02:53:00
1 2010-02-25 07:00:00 qfe debe ser menor o igual a qff 1014.7 - 1011.1 2023-11-08 02:53:00
1 2010-02-25 08:00:00 qfe debe ser menor o igual a qff 1015.9 - 1011.0 2023-11-08 02:53:00
1 2010-02-25 09:00:00 qfe debe ser menor o igual a qff 1016.3 - 1011.3 2023-11-08 02:53:00
1 2010-02-25 10:00:00 qfe debe ser menor o igual a qff 1016.1 - 1011.5 2023-11-08 02:53:00
1 2010-02-25 11:00:00 qfe debe ser menor o igual a qff 1015.8 - 1012.2 2023-11-08 02:53:00
1 2010-02-25 12:00:00 qfe debe ser menor o igual a qff 1015.4 - 1013.3 2023-11-08 02:53:00
1 2010-02-25 13:00:00 qfe debe ser menor o igual a qff 1014.7 - 1014.6 2023-11-08 02:53:00
1 2010-02-25 17:00:00 qfe debe ser menor o igual a qff 1014.3 - 1013.9 2023-11-08 02:53:00
1 2010-02-25 18:00:00 qfe debe ser menor o igual a qff 1014.6 - 1012.9 2023-11-08 02:53:00
1 2010-02-25 19:00:00 qfe debe ser menor o igual a qff 1015.2 - 1012.1 2023-11-08 02:53:00
1 2010-02-25 20:00:00 qfe debe ser menor o igual a qff 1015.8 - 1011.7 2023-11-08 02:53:00
1 2010-02-25 21:00:00 qfe debe ser menor o igual a qff 1016.2 - 1011.8 2023-11-08 02:53:00
1 2010-02-25 22:00:00 qfe debe ser menor o igual a qff 1016.4 - 1012.2 2023-11-08 02:53:00
1 2010-02-25 23:00:00 qfe debe ser menor o igual a qff 1016.5 - 1012.9 2023-11-08 02:53:00
1 2010-02-26 00:00:00 qfe debe ser menor o igual a qff 1016.3 - 1013.5 2023-11-08 02:53:00
1 2010-02-26 01:00:00 qfe debe ser menor o igual a qff 1016.3 - 1014.1 2023-11-08 02:53:00
1 2010-02-26 02:00:00 qfe debe ser menor o igual a qff 1016.1 - 1014.6 2023-11-08 02:53:00
1 2010-02-26 03:00:00 qfe debe ser menor o igual a qff 1015.6 - 1014.9 2023-11-08 02:53:00
1 2010-02-26 04:00:00 qfe debe ser menor o igual a qff 1015.2 - 1015.0 2023-11-08 02:53:00
1 2010-02-26 07:00:00 qfe debe ser menor o igual a qff 1015.2 - 1014.5 2023-11-08 02:53:00
1 2010-02-26 08:00:00 qfe debe ser menor o igual a qff 1016.0 - 1014.1 2023-11-08 02:53:00
1 2010-02-26 09:00:00 qfe debe ser menor o igual a qff 1016.7 - 1014.1 2023-11-08 02:53:00
1 2010-02-26 10:00:00 qfe debe ser menor o igual a qff 1016.8 - 1013.8 2023-11-08 02:53:00
1 2010-02-26 11:00:00 qfe debe ser menor o igual a qff 1016.4 - 1014.2 2023-11-08 02:53:00
1 2010-02-26 12:00:00 qfe debe ser menor o igual a qff 1016.2 - 1014.7 2023-11-08 02:53:00
1 2010-02-26 13:00:00 qfe debe ser menor o igual a qff 1015.7 - 1015.0 2023-11-08 02:53:00
1 2010-02-26 14:00:00 qfe debe ser menor o igual a qff 1015.3 - 1015.2 2023-11-08 02:53:00
1 2010-02-26 20:00:00 qfe debe ser menor o igual a qff 1014.0 - 1013.2 2023-11-08 02:53:00
1 2010-02-26 21:00:00 qfe debe ser menor o igual a qff 1014.4 - 1012.6 2023-11-08 02:53:00
1 2010-02-26 22:00:00 qfe debe ser menor o igual a qff 1014.5 - 1012.3 2023-11-08 02:53:00
1 2010-02-26 23:00:00 qfe debe ser menor o igual a qff 1014.4 - 1012.1 2023-11-08 02:53:00
1 2010-02-27 00:00:00 qfe debe ser menor o igual a qff 1014.3 - 1012.1 2023-11-08 02:53:00
1 2010-02-27 01:00:00 qfe debe ser menor o igual a qff 1014.3 - 1012.4 2023-11-08 02:53:00
1 2010-02-27 02:00:00 qfe debe ser menor o igual a qff 1014.1 - 1012.9 2023-11-08 02:53:00
1 2010-02-27 03:00:00 qfe debe ser menor o igual a qff 1013.5 - 1013.2 2023-11-08 02:53:00
1 2010-02-27 06:00:00 qfe debe ser menor o igual a qff 1013.0 - 1012.8 2023-11-08 02:53:00
1 2010-02-27 07:00:00 qfe debe ser menor o igual a qff 1013.5 - 1012.4 2023-11-08 02:53:00
1 2010-02-27 08:00:00 qfe debe ser menor o igual a qff 1014.1 - 1011.8 2023-11-08 02:53:00
1 2010-02-27 09:00:00 qfe debe ser menor o igual a qff 1014.3 - 1011.4 2023-11-08 02:53:00
1 2010-02-27 10:00:00 qfe debe ser menor o igual a qff 1014.3 - 1011.5 2023-11-08 02:53:00
1 2010-02-27 11:00:00 qfe debe ser menor o igual a qff 1014.3 - 1011.8 2023-11-08 02:53:00
1 2010-02-27 12:00:00 qfe debe ser menor o igual a qff 1014.1 - 1012.6 2023-11-08 02:53:00
1 2010-02-27 13:00:00 qfe debe ser menor o igual a qff 1013.5 - 1012.8 2023-11-08 02:53:00
1 2010-02-27 14:00:00 qfe debe ser menor o igual a qff 1013.0 - 1012.6 2023-11-08 02:53:00
1 2010-02-27 19:00:00 qfe debe ser menor o igual a qff 1011.7 - 1011.3 2023-11-08 02:53:00
1 2010-02-27 20:00:00 qfe debe ser menor o igual a qff 1012.3 - 1010.7 2023-11-08 02:53:00
1 2010-02-27 21:00:00 qfe debe ser menor o igual a qff 1013.1 - 1010.0 2023-11-08 02:53:00
1 2010-02-27 22:00:00 qfe debe ser menor o igual a qff 1013.3 - 1009.9 2023-11-08 02:53:00
1 2010-02-27 23:00:00 qfe debe ser menor o igual a qff 1013.1 - 1010.0 2023-11-08 02:53:00
1 2010-02-28 00:00:00 qfe debe ser menor o igual a qff 1012.6 - 1010.3 2023-11-08 02:53:00
1 2010-02-28 01:00:00 qfe debe ser menor o igual a qff 1012.5 - 1010.7 2023-11-08 02:53:00
1 2010-02-28 02:00:00 qfe debe ser menor o igual a qff 1012.3 - 1011.3 2023-11-08 02:53:00
1 2010-02-28 03:00:00 qfe debe ser menor o igual a qff 1011.9 - 1011.5 2023-11-08 02:53:00
1 2010-02-28 04:00:00 qfe debe ser menor o igual a qff 1011.7 - 1010.9 2023-11-08 02:53:00
1 2010-02-28 05:00:00 qfe debe ser menor o igual a qff 1011.6 - 1010.7 2023-11-08 02:53:00
1 2010-02-28 06:00:00 qfe debe ser menor o igual a qff 1011.8 - 1010.7 2023-11-08 02:53:00
1 2010-02-28 07:00:00 qfe debe ser menor o igual a qff 1012.2 - 1010.3 2023-11-08 02:53:00
1 2010-02-28 08:00:00 qfe debe ser menor o igual a qff 1012.6 - 1010.1 2023-11-08 02:53:00
1 2010-02-28 09:00:00 qfe debe ser menor o igual a qff 1012.6 - 1010.0 2023-11-08 02:53:00
1 2010-02-28 10:00:00 qfe debe ser menor o igual a qff 1012.5 - 1009.9 2023-11-08 02:53:00
1 2010-02-28 11:00:00 qfe debe ser menor o igual a qff 1012.4 - 1010.2 2023-11-08 02:53:00
1 2010-02-28 12:00:00 qfe debe ser menor o igual a qff 1012.4 - 1010.6 2023-11-08 02:53:00
1 2010-02-28 13:00:00 qfe debe ser menor o igual a qff 1012.1 - 1010.7 2023-11-08 02:53:00
1 2010-02-28 14:00:00 qfe debe ser menor o igual a qff 1011.6 - 1010.5 2023-11-08 02:53:00
1 2010-02-28 15:00:00 qfe debe ser menor o igual a qff 1011.0 - 1010.4 2023-11-08 02:53:00
1 2010-02-28 19:00:00 qfe debe ser menor o igual a qff 1009.6 - 1009.3 2023-11-08 02:53:00
1 2010-02-28 20:00:00 qfe debe ser menor o igual a qff 1009.8 - 1008.6 2023-11-08 02:53:00
1 2010-02-28 21:00:00 qfe debe ser menor o igual a qff 1010.2 - 1007.9 2023-11-08 02:53:00
1 2010-02-28 22:00:00 qfe debe ser menor o igual a qff 1010.3 - 1007.5 2023-11-08 02:53:00
1 2010-02-28 23:00:00 qfe debe ser menor o igual a qff 1010.1 - 1007.4 2023-11-08 02:53:00
1 2010-03-01 00:00:00 qfe debe ser menor o igual a qff 1009.9 - 1007.2 2023-11-08 02:53:00
1 2010-03-01 01:00:00 qfe debe ser menor o igual a qff 1009.8 - 1007.4 2023-11-08 02:53:00
1 2010-03-01 02:00:00 qfe debe ser menor o igual a qff 1009.9 - 1008.1 2023-11-08 02:53:00
1 2010-03-01 03:00:00 qfe debe ser menor o igual a qff 1009.7 - 1008.1 2023-11-08 02:53:00
1 2010-03-01 04:00:00 qfe debe ser menor o igual a qff 1009.3 - 1007.5 2023-11-08 02:53:00
1 2010-03-01 05:00:00 qfe debe ser menor o igual a qff 1009.5 - 1007.7 2023-11-08 02:53:00
1 2010-03-01 06:00:00 qfe debe ser menor o igual a qff 1010.0 - 1007.9 2023-11-08 02:53:00
1 2010-03-01 07:00:00 qfe debe ser menor o igual a qff 1010.7 - 1007.7 2023-11-08 02:53:00
1 2010-03-01 08:00:00 qfe debe ser menor o igual a qff 1011.4 - 1007.4 2023-11-08 02:53:00
1 2010-03-01 09:00:00 qfe debe ser menor o igual a qff 1011.2 - 1006.9 2023-11-08 02:53:00
1 2010-03-01 10:00:00 qfe debe ser menor o igual a qff 1011.1 - 1007.5 2023-11-08 02:53:00
1 2010-03-01 11:00:00 qfe debe ser menor o igual a qff 1011.2 - 1008.8 2023-11-08 02:53:00
1 2010-03-01 12:00:00 qfe debe ser menor o igual a qff 1010.9 - 1008.5 2023-11-08 02:53:00
1 2010-03-01 13:00:00 qfe debe ser menor o igual a qff 1010.3 - 1009.2 2023-11-08 02:53:00
1 2010-03-01 14:00:00 qfe debe ser menor o igual a qff 1009.8 - 1009.5 2023-11-08 02:53:00
1 2010-03-01 15:00:00 qfe debe ser menor o igual a qff 1009.5 - 1009.1 2023-11-08 02:53:00
1 2010-03-01 16:00:00 qfe debe ser menor o igual a qff 1009.0 - 1008.9 2023-11-08 02:53:00
1 2010-03-01 17:00:00 qfe debe ser menor o igual a qff 1008.7 - 1008.6 2023-11-08 02:53:00
1 2010-03-01 18:00:00 qfe debe ser menor o igual a qff 1008.8 - 1007.9 2023-11-08 02:53:00
1 2010-03-01 19:00:00 qfe debe ser menor o igual a qff 1009.3 - 1007.4 2023-11-08 02:53:00
1 2010-03-01 20:00:00 qfe debe ser menor o igual a qff 1010.4 - 1007.1 2023-11-08 02:53:00
1 2010-03-01 21:00:00 qfe debe ser menor o igual a qff 1011.3 - 1006.6 2023-11-08 02:53:00
1 2010-03-01 22:00:00 qfe debe ser menor o igual a qff 1012.1 - 1006.7 2023-11-08 02:53:00
1 2010-03-01 23:00:00 qfe debe ser menor o igual a qff 1012.4 - 1006.7 2023-11-08 02:53:00
1 2010-03-02 00:00:00 qfe debe ser menor o igual a qff 1013.1 - 1007.3 2023-11-08 02:53:00
1 2010-03-02 01:00:00 qfe debe ser menor o igual a qff 1013.7 - 1008.1 2023-11-08 02:53:00
1 2010-03-02 02:00:00 qfe debe ser menor o igual a qff 1013.8 - 1008.9 2023-11-08 02:53:00
1 2010-03-02 03:00:00 qfe debe ser menor o igual a qff 1013.6 - 1009.9 2023-11-08 02:53:00
1 2010-03-02 04:00:00 qfe debe ser menor o igual a qff 1013.5 - 1010.4 2023-11-08 02:53:00
1 2010-03-02 05:00:00 qfe debe ser menor o igual a qff 1013.7 - 1011.3 2023-11-08 02:53:00
1 2010-03-02 06:00:00 qfe debe ser menor o igual a qff 1014.1 - 1011.9 2023-11-08 02:53:00
1 2010-03-02 07:00:00 qfe debe ser menor o igual a qff 1014.6 - 1011.8 2023-11-08 02:53:00
1 2010-03-02 08:00:00 qfe debe ser menor o igual a qff 1015.2 - 1011.5 2023-11-08 02:53:00
1 2010-03-02 09:00:00 qfe debe ser menor o igual a qff 1015.7 - 1011.7 2023-11-08 02:53:00
1 2010-03-02 10:00:00 qfe debe ser menor o igual a qff 1015.9 - 1011.9 2023-11-08 02:53:00
1 2010-03-02 11:00:00 qfe debe ser menor o igual a qff 1015.9 - 1012.6 2023-11-08 02:53:00
1 2010-03-02 12:00:00 qfe debe ser menor o igual a qff 1016.0 - 1013.1 2023-11-08 02:53:00
1 2010-03-02 13:00:00 qfe debe ser menor o igual a qff 1015.8 - 1013.7 2023-11-08 02:53:00
1 2010-03-02 14:00:00 qfe debe ser menor o igual a qff 1015.4 - 1014.2 2023-11-08 02:53:00
1 2010-03-02 15:00:00 qfe debe ser menor o igual a qff 1014.5 - 1014.3 2023-11-08 02:53:00
1 2010-03-02 20:00:00 qfe debe ser menor o igual a qff 1013.9 - 1012.7 2023-11-08 02:53:00
1 2010-03-02 21:00:00 qfe debe ser menor o igual a qff 1014.7 - 1011.9 2023-11-08 02:53:00
1 2010-03-02 22:00:00 qfe debe ser menor o igual a qff 1015.0 - 1011.6 2023-11-08 02:53:00
1 2010-03-02 23:00:00 qfe debe ser menor o igual a qff 1015.1 - 1011.6 2023-11-08 02:53:00
1 2010-03-03 00:00:00 qfe debe ser menor o igual a qff 1015.0 - 1012.0 2023-11-08 02:53:00
1 2010-03-03 01:00:00 qfe debe ser menor o igual a qff 1014.9 - 1012.4 2023-11-08 02:53:00
1 2010-03-03 02:00:00 qfe debe ser menor o igual a qff 1014.7 - 1013.2 2023-11-08 02:53:00
1 2010-03-03 03:00:00 qfe debe ser menor o igual a qff 1014.5 - 1013.7 2023-11-08 02:53:00
1 2010-03-03 04:00:00 qfe debe ser menor o igual a qff 1014.3 - 1013.8 2023-11-08 02:53:00
1 2010-03-03 05:00:00 qfe debe ser menor o igual a qff 1014.2 - 1013.5 2023-11-08 02:53:00
1 2010-03-03 06:00:00 qfe debe ser menor o igual a qff 1014.4 - 1013.6 2023-11-08 02:53:00
1 2010-03-03 07:00:00 qfe debe ser menor o igual a qff 1014.8 - 1013.3 2023-11-08 02:53:00
1 2010-03-03 08:00:00 qfe debe ser menor o igual a qff 1015.3 - 1013.2 2023-11-08 02:53:00
1 2010-03-03 09:00:00 qfe debe ser menor o igual a qff 1015.4 - 1013.0 2023-11-08 02:53:00
1 2010-03-03 10:00:00 qfe debe ser menor o igual a qff 1015.3 - 1013.1 2023-11-08 02:53:00
1 2010-03-03 11:00:00 qfe debe ser menor o igual a qff 1015.2 - 1013.3 2023-11-08 02:53:00
1 2010-03-03 12:00:00 qfe debe ser menor o igual a qff 1015.1 - 1014.1 2023-11-08 02:53:00
1 2010-03-03 13:00:00 qfe debe ser menor o igual a qff 1015.1 - 1014.0 2023-11-08 02:53:00
1 2010-03-03 14:00:00 qfe debe ser menor o igual a qff 1014.8 - 1013.9 2023-11-08 02:53:00
1 2010-03-03 15:00:00 qfe debe ser menor o igual a qff 1014.2 - 1013.7 2023-11-08 02:53:00
1 2010-03-03 18:00:00 qfe debe ser menor o igual a qff 1013.4 - 1013.3 2023-11-08 02:53:00
1 2010-03-03 19:00:00 qfe debe ser menor o igual a qff 1013.8 - 1012.8 2023-11-08 02:53:00
1 2010-03-03 20:00:00 qfe debe ser menor o igual a qff 1014.6 - 1012.4 2023-11-08 02:53:00
1 2010-03-03 21:00:00 qfe debe ser menor o igual a qff 1015.4 - 1011.7 2023-11-08 02:53:00
1 2010-03-03 22:00:00 qfe debe ser menor o igual a qff 1016.2 - 1011.5 2023-11-08 02:53:00
1 2010-03-03 23:00:00 qfe debe ser menor o igual a qff 1016.2 - 1011.6 2023-11-08 02:53:00
1 2010-03-04 00:00:00 qfe debe ser menor o igual a qff 1016.2 - 1012.3 2023-11-08 02:53:00
1 2010-03-04 01:00:00 qfe debe ser menor o igual a qff 1015.9 - 1013.0 2023-11-08 02:53:00
1 2010-03-04 02:00:00 qfe debe ser menor o igual a qff 1015.6 - 1013.9 2023-11-08 02:53:00
1 2010-03-04 03:00:00 qfe debe ser menor o igual a qff 1015.2 - 1014.5 2023-11-08 02:53:00
1 2010-03-04 04:00:00 qfe debe ser menor o igual a qff 1015.0 - 1014.5 2023-11-08 02:53:00
1 2010-03-04 05:00:00 qfe debe ser menor o igual a qff 1015.1 - 1014.4 2023-11-08 02:53:00
1 2010-03-04 06:00:00 qfe debe ser menor o igual a qff 1015.2 - 1014.1 2023-11-08 02:53:00
1 2010-03-04 07:00:00 qfe debe ser menor o igual a qff 1015.8 - 1013.9 2023-11-08 02:53:00
1 2010-03-04 08:00:00 qfe debe ser menor o igual a qff 1016.3 - 1013.8 2023-11-08 02:53:00
1 2010-03-04 09:00:00 qfe debe ser menor o igual a qff 1016.3 - 1013.6 2023-11-08 02:53:00
1 2010-03-04 10:00:00 qfe debe ser menor o igual a qff 1016.0 - 1013.5 2023-11-08 02:53:00
1 2010-03-04 11:00:00 qfe debe ser menor o igual a qff 1015.8 - 1014.2 2023-11-08 02:53:00
1 2010-03-04 12:00:00 qfe debe ser menor o igual a qff 1015.5 - 1014.7 2023-11-08 02:53:00
1 2010-03-04 13:00:00 qfe debe ser menor o igual a qff 1015.2 - 1014.7 2023-11-08 02:53:00
1 2010-03-04 14:00:00 qfe debe ser menor o igual a qff 1015.1 - 1014.5 2023-11-08 02:53:00
1 2010-03-04 15:00:00 qfe debe ser menor o igual a qff 1014.5 - 1014.2 2023-11-08 02:53:00
1 2010-03-04 17:00:00 qfe debe ser menor o igual a qff 1013.8 - 1013.6 2023-11-08 02:53:00
1 2010-03-04 18:00:00 qfe debe ser menor o igual a qff 1014.0 - 1013.5 2023-11-08 02:53:00
1 2010-03-04 19:00:00 qfe debe ser menor o igual a qff 1014.4 - 1013.3 2023-11-08 02:53:00
1 2010-03-04 20:00:00 qfe debe ser menor o igual a qff 1015.0 - 1012.6 2023-11-08 02:53:00
1 2010-03-04 21:00:00 qfe debe ser menor o igual a qff 1015.2 - 1012.1 2023-11-08 02:53:00
1 2010-03-04 22:00:00 qfe debe ser menor o igual a qff 1014.7 - 1011.8 2023-11-08 02:53:00
1 2010-03-04 23:00:00 qfe debe ser menor o igual a qff 1014.7 - 1012.3 2023-11-08 02:53:00
1 2010-03-05 00:00:00 qfe debe ser menor o igual a qff 1015.5 - 1012.8 2023-11-08 02:53:00
1 2010-03-05 01:00:00 qfe debe ser menor o igual a qff 1015.3 - 1013.2 2023-11-08 02:53:00
1 2010-03-05 02:00:00 qfe debe ser menor o igual a qff 1014.6 - 1012.9 2023-11-08 02:53:00
1 2010-03-05 03:00:00 qfe debe ser menor o igual a qff 1014.0 - 1012.7 2023-11-08 02:53:00
1 2010-03-05 04:00:00 qfe debe ser menor o igual a qff 1013.8 - 1013.4 2023-11-08 02:53:00
1 2010-03-05 07:00:00 qfe debe ser menor o igual a qff 1013.1 - 1012.4 2023-11-08 02:53:00
1 2010-03-05 08:00:00 qfe debe ser menor o igual a qff 1013.0 - 1012.2 2023-11-08 02:53:00
1 2010-03-05 09:00:00 qfe debe ser menor o igual a qff 1012.8 - 1011.6 2023-11-08 02:53:00
1 2010-03-05 10:00:00 qfe debe ser menor o igual a qff 1012.4 - 1011.7 2023-11-08 02:53:00
1 2010-03-05 11:00:00 qfe debe ser menor o igual a qff 1011.8 - 1011.2 2023-11-08 02:53:00
1 2010-03-05 18:00:00 qfe debe ser menor o igual a qff 1008.8 - 1008.5 2023-11-08 02:53:00
1 2010-03-05 19:00:00 qfe debe ser menor o igual a qff 1009.0 - 1007.8 2023-11-08 02:53:00
1 2010-03-05 20:00:00 qfe debe ser menor o igual a qff 1009.5 - 1007.7 2023-11-08 02:53:00
1 2010-03-05 21:00:00 qfe debe ser menor o igual a qff 1010.2 - 1007.2 2023-11-08 02:53:00
1 2010-03-05 22:00:00 qfe debe ser menor o igual a qff 1010.9 - 1007.0 2023-11-08 02:53:00
1 2010-03-05 23:00:00 qfe debe ser menor o igual a qff 1011.0 - 1007.0 2023-11-08 02:53:00
1 2010-03-06 00:00:00 qfe debe ser menor o igual a qff 1010.4 - 1006.8 2023-11-08 02:53:00
1 2010-03-06 01:00:00 qfe debe ser menor o igual a qff 1009.9 - 1007.5 2023-11-08 02:53:00
1 2010-03-06 02:00:00 qfe debe ser menor o igual a qff 1009.3 - 1008.4 2023-11-08 02:53:00
1 2010-03-06 05:00:00 qfe debe ser menor o igual a qff 1008.5 - 1008.1 2023-11-08 02:53:00
1 2010-03-06 06:00:00 qfe debe ser menor o igual a qff 1008.2 - 1007.6 2023-11-08 02:53:00
1 2010-03-06 07:00:00 qfe debe ser menor o igual a qff 1008.4 - 1007.2 2023-11-08 02:53:00
1 2010-03-06 08:00:00 qfe debe ser menor o igual a qff 1008.8 - 1007.0 2023-11-08 02:53:00
1 2010-03-06 09:00:00 qfe debe ser menor o igual a qff 1008.9 - 1006.7 2023-11-08 02:53:00
1 2010-03-06 10:00:00 qfe debe ser menor o igual a qff 1008.4 - 1006.4 2023-11-08 02:53:00
1 2010-03-06 11:00:00 qfe debe ser menor o igual a qff 1008.5 - 1006.5 2023-11-08 02:53:00
1 2010-03-06 12:00:00 qfe debe ser menor o igual a qff 1008.6 - 1006.9 2023-11-08 02:53:00
1 2010-03-06 13:00:00 qfe debe ser menor o igual a qff 1008.6 - 1007.0 2023-11-08 02:53:00
1 2010-03-06 14:00:00 qfe debe ser menor o igual a qff 1008.4 - 1006.6 2023-11-08 02:53:00
1 2010-03-06 15:00:00 qfe debe ser menor o igual a qff 1008.2 - 1006.3 2023-11-08 02:53:00
1 2010-03-06 16:00:00 qfe debe ser menor o igual a qff 1007.8 - 1006.6 2023-11-08 02:53:00
1 2010-03-06 17:00:00 qfe debe ser menor o igual a qff 1007.9 - 1006.6 2023-11-08 02:53:00
1 2010-03-06 18:00:00 qfe debe ser menor o igual a qff 1008.1 - 1006.2 2023-11-08 02:53:00
1 2010-03-06 19:00:00 qfe debe ser menor o igual a qff 1008.7 - 1005.9 2023-11-08 02:53:00
1 2010-03-06 20:00:00 qfe debe ser menor o igual a qff 1009.3 - 1005.5 2023-11-08 02:53:00
1 2010-03-06 21:00:00 qfe debe ser menor o igual a qff 1010.5 - 1005.4 2023-11-08 02:53:00
1 2010-03-06 22:00:00 qfe debe ser menor o igual a qff 1011.0 - 1005.4 2023-11-08 02:53:00
1 2010-03-06 23:00:00 qfe debe ser menor o igual a qff 1010.9 - 1005.6 2023-11-08 02:53:00
1 2010-03-07 00:00:00 qfe debe ser menor o igual a qff 1011.0 - 1006.3 2023-11-08 02:53:00
1 2010-03-07 01:00:00 qfe debe ser menor o igual a qff 1011.0 - 1007.2 2023-11-08 02:53:00
1 2010-03-07 02:00:00 qfe debe ser menor o igual a qff 1010.3 - 1008.5 2023-11-08 02:53:00
1 2010-03-07 03:00:00 qfe debe ser menor o igual a qff 1009.3 - 1008.4 2023-11-08 02:53:00
1 2010-03-07 04:00:00 qfe debe ser menor o igual a qff 1009.0 - 1008.5 2023-11-08 02:53:00
1 2010-03-07 05:00:00 qfe debe ser menor o igual a qff 1009.0 - 1008.6 2023-11-08 02:53:00
1 2010-03-07 06:00:00 qfe debe ser menor o igual a qff 1009.2 - 1008.8 2023-11-08 02:53:00
1 2010-03-07 07:00:00 qfe debe ser menor o igual a qff 1009.6 - 1007.7 2023-11-08 02:53:00
1 2010-03-07 08:00:00 qfe debe ser menor o igual a qff 1010.4 - 1007.1 2023-11-08 02:53:00
1 2010-03-07 09:00:00 qfe debe ser menor o igual a qff 1011.6 - 1007.1 2023-11-08 02:53:00
1 2010-03-07 10:00:00 qfe debe ser menor o igual a qff 1011.8 - 1007.1 2023-11-08 02:53:00
1 2010-03-07 11:00:00 qfe debe ser menor o igual a qff 1011.8 - 1007.5 2023-11-08 02:53:00
1 2010-03-07 12:00:00 qfe debe ser menor o igual a qff 1011.9 - 1007.9 2023-11-08 02:53:00
1 2010-03-07 13:00:00 qfe debe ser menor o igual a qff 1011.8 - 1008.7 2023-11-08 02:53:00
1 2010-03-07 14:00:00 qfe debe ser menor o igual a qff 1011.8 - 1009.6 2023-11-08 02:53:00
1 2010-03-07 15:00:00 qfe debe ser menor o igual a qff 1011.9 - 1009.8 2023-11-08 02:53:00
1 2010-03-07 16:00:00 qfe debe ser menor o igual a qff 1011.9 - 1009.8 2023-11-08 02:53:00
1 2010-03-07 17:00:00 qfe debe ser menor o igual a qff 1011.8 - 1009.7 2023-11-08 02:53:00
1 2010-03-07 18:00:00 qfe debe ser menor o igual a qff 1012.3 - 1009.4 2023-11-08 02:53:00
1 2010-03-07 19:00:00 qfe debe ser menor o igual a qff 1013.6 - 1009.3 2023-11-08 02:53:00
1 2010-03-07 20:00:00 qfe debe ser menor o igual a qff 1014.6 - 1009.4 2023-11-08 02:53:00
1 2010-03-07 21:00:00 qfe debe ser menor o igual a qff 1015.3 - 1009.2 2023-11-08 02:53:00
1 2010-03-07 22:00:00 qfe debe ser menor o igual a qff 1016.0 - 1009.2 2023-11-08 02:53:00
1 2010-03-07 23:00:00 qfe debe ser menor o igual a qff 1016.4 - 1010.5 2023-11-08 02:53:00
1 2010-03-08 00:00:00 qfe debe ser menor o igual a qff 1015.7 - 1011.4 2023-11-08 02:53:00
1 2010-03-08 01:00:00 qfe debe ser menor o igual a qff 1014.9 - 1012.3 2023-11-08 02:53:00
1 2010-03-08 02:00:00 qfe debe ser menor o igual a qff 1014.6 - 1013.1 2023-11-08 02:53:00
1 2010-03-08 03:00:00 qfe debe ser menor o igual a qff 1015.2 - 1013.9 2023-11-08 02:53:00
1 2010-03-08 04:00:00 qfe debe ser menor o igual a qff 1015.4 - 1013.7 2023-11-08 02:53:00
1 2010-03-08 05:00:00 qfe debe ser menor o igual a qff 1015.4 - 1013.5 2023-11-08 02:53:00
1 2010-03-08 06:00:00 qfe debe ser menor o igual a qff 1014.8 - 1012.7 2023-11-08 02:53:00
1 2010-03-08 07:00:00 qfe debe ser menor o igual a qff 1014.5 - 1013.2 2023-11-08 02:53:00
1 2010-03-08 08:00:00 qfe debe ser menor o igual a qff 1014.6 - 1013.1 2023-11-08 02:53:00
1 2010-03-08 09:00:00 qfe debe ser menor o igual a qff 1014.5 - 1013.7 2023-11-08 02:53:00
1 2010-03-08 10:00:00 qfe debe ser menor o igual a qff 1014.0 - 1013.3 2023-11-08 02:53:00
1 2010-03-08 11:00:00 qfe debe ser menor o igual a qff 1014.0 - 1012.9 2023-11-08 02:53:00
1 2010-03-08 12:00:00 qfe debe ser menor o igual a qff 1013.8 - 1012.9 2023-11-08 02:53:00
1 2010-03-08 13:00:00 qfe debe ser menor o igual a qff 1013.5 - 1013.0 2023-11-08 02:53:00
1 2010-03-08 14:00:00 qfe debe ser menor o igual a qff 1013.0 - 1012.3 2023-11-08 02:53:00
1 2010-03-08 15:00:00 qfe debe ser menor o igual a qff 1012.5 - 1011.9 2023-11-08 02:53:00
1 2010-03-08 18:00:00 qfe debe ser menor o igual a qff 1011.5 - 1011.3 2023-11-08 02:53:00
1 2010-03-08 19:00:00 qfe debe ser menor o igual a qff 1011.4 - 1011.0 2023-11-08 02:53:00
1 2010-03-08 20:00:00 qfe debe ser menor o igual a qff 1011.4 - 1010.6 2023-11-08 02:53:00
1 2010-03-08 21:00:00 qfe debe ser menor o igual a qff 1011.7 - 1009.9 2023-11-08 02:53:00
1 2010-03-08 22:00:00 qfe debe ser menor o igual a qff 1011.9 - 1009.9 2023-11-08 02:53:00
1 2010-03-08 23:00:00 qfe debe ser menor o igual a qff 1011.8 - 1009.9 2023-11-08 02:53:00
1 2010-03-09 00:00:00 qfe debe ser menor o igual a qff 1011.7 - 1009.9 2023-11-08 02:53:00
1 2010-03-09 01:00:00 qfe debe ser menor o igual a qff 1011.4 - 1009.9 2023-11-08 02:53:00
1 2010-03-09 02:00:00 qfe debe ser menor o igual a qff 1010.9 - 1010.2 2023-11-08 02:53:00
1 2010-03-09 03:00:00 qfe debe ser menor o igual a qff 1010.3 - 1010.2 2023-11-08 02:53:00
1 2010-03-09 04:00:00 qfe debe ser menor o igual a qff 1010.0 - 1009.9 2023-11-08 02:53:00
1 2010-03-09 05:00:00 qfe debe ser menor o igual a qff 1010.1 - 1009.7 2023-11-08 02:53:00
1 2010-03-09 06:00:00 qfe debe ser menor o igual a qff 1010.4 - 1009.4 2023-11-08 02:53:00
1 2010-03-09 07:00:00 qfe debe ser menor o igual a qff 1010.5 - 1009.0 2023-11-08 02:53:00
1 2010-03-09 08:00:00 qfe debe ser menor o igual a qff 1010.7 - 1008.4 2023-11-08 02:53:00
1 2010-03-09 09:00:00 qfe debe ser menor o igual a qff 1010.6 - 1008.4 2023-11-08 02:53:00
1 2010-03-09 10:00:00 qfe debe ser menor o igual a qff 1010.2 - 1008.4 2023-11-08 02:53:00
1 2010-03-09 11:00:00 qfe debe ser menor o igual a qff 1010.0 - 1008.6 2023-11-08 02:53:00
1 2010-03-09 12:00:00 qfe debe ser menor o igual a qff 1009.9 - 1009.0 2023-11-08 02:53:00
1 2010-03-09 13:00:00 qfe debe ser menor o igual a qff 1009.7 - 1008.9 2023-11-08 02:53:00
1 2010-03-09 14:00:00 qfe debe ser menor o igual a qff 1009.3 - 1008.5 2023-11-08 02:53:00
1 2010-03-09 15:00:00 qfe debe ser menor o igual a qff 1008.9 - 1008.2 2023-11-08 02:53:00
1 2010-03-09 16:00:00 qfe debe ser menor o igual a qff 1008.7 - 1008.0 2023-11-08 02:53:00
1 2010-03-09 17:00:00 qfe debe ser menor o igual a qff 1008.8 - 1007.8 2023-11-08 02:53:00
1 2010-03-09 18:00:00 qfe debe ser menor o igual a qff 1009.3 - 1007.4 2023-11-08 02:53:00
1 2010-03-09 19:00:00 qfe debe ser menor o igual a qff 1010.3 - 1007.1 2023-11-08 02:53:00
1 2010-03-09 20:00:00 qfe debe ser menor o igual a qff 1011.2 - 1006.6 2023-11-08 02:53:00
1 2010-03-09 21:00:00 qfe debe ser menor o igual a qff 1012.1 - 1006.4 2023-11-08 02:53:00
1 2010-03-09 22:00:00 qfe debe ser menor o igual a qff 1012.6 - 1006.7 2023-11-08 02:53:00
1 2010-03-09 23:00:00 qfe debe ser menor o igual a qff 1012.6 - 1007.3 2023-11-08 02:53:00
1 2010-03-10 00:00:00 qfe debe ser menor o igual a qff 1012.6 - 1008.3 2023-11-08 02:53:00
1 2010-03-10 01:00:00 qfe debe ser menor o igual a qff 1012.4 - 1009.2 2023-11-08 02:53:00
1 2010-03-10 02:00:00 qfe debe ser menor o igual a qff 1012.2 - 1010.0 2023-11-08 02:53:00
1 2010-03-10 03:00:00 qfe debe ser menor o igual a qff 1011.9 - 1010.4 2023-11-08 02:53:00
1 2010-03-10 04:00:00 qfe debe ser menor o igual a qff 1011.6 - 1010.7 2023-11-08 02:53:00
1 2010-03-10 05:00:00 qfe debe ser menor o igual a qff 1011.4 - 1010.7 2023-11-08 02:53:00
1 2010-03-10 06:00:00 qfe debe ser menor o igual a qff 1011.5 - 1010.4 2023-11-08 02:53:00
1 2010-03-10 07:00:00 qfe debe ser menor o igual a qff 1011.6 - 1010.2 2023-11-08 02:53:00
1 2010-03-10 08:00:00 qfe debe ser menor o igual a qff 1011.6 - 1010.0 2023-11-08 02:53:00
1 2010-03-10 09:00:00 qfe debe ser menor o igual a qff 1011.7 - 1009.8 2023-11-08 02:53:00
1 2010-03-10 10:00:00 qfe debe ser menor o igual a qff 1011.6 - 1009.8 2023-11-08 02:53:00
1 2010-03-10 11:00:00 qfe debe ser menor o igual a qff 1011.6 - 1009.8 2023-11-08 02:53:00
1 2010-03-10 12:00:00 qfe debe ser menor o igual a qff 1011.3 - 1010.0 2023-11-08 02:53:00
1 2010-03-10 13:00:00 qfe debe ser menor o igual a qff 1011.0 - 1010.1 2023-11-08 02:53:00
1 2010-03-10 14:00:00 qfe debe ser menor o igual a qff 1010.8 - 1009.6 2023-11-08 02:53:00
1 2010-03-10 15:00:00 qfe debe ser menor o igual a qff 1010.8 - 1009.6 2023-11-08 02:53:00
1 2010-03-10 16:00:00 qfe debe ser menor o igual a qff 1010.7 - 1009.4 2023-11-08 02:53:00
1 2010-03-10 17:00:00 qfe debe ser menor o igual a qff 1010.7 - 1009.1 2023-11-08 02:53:00
1 2010-03-10 18:00:00 qfe debe ser menor o igual a qff 1011.0 - 1008.9 2023-11-08 02:53:00
1 2010-03-10 19:00:00 qfe debe ser menor o igual a qff 1011.4 - 1008.6 2023-11-08 02:53:00
1 2010-03-10 20:00:00 qfe debe ser menor o igual a qff 1012.0 - 1008.4 2023-11-08 02:53:00
1 2010-03-10 21:00:00 qfe debe ser menor o igual a qff 1012.8 - 1008.3 2023-11-08 02:53:00
1 2010-03-10 22:00:00 qfe debe ser menor o igual a qff 1013.2 - 1008.5 2023-11-08 02:53:00
1 2010-03-10 23:00:00 qfe debe ser menor o igual a qff 1013.3 - 1008.8 2023-11-08 02:53:00
1 2010-03-11 00:00:00 qfe debe ser menor o igual a qff 1013.2 - 1009.1 2023-11-08 02:53:00
1 2010-03-11 01:00:00 qfe debe ser menor o igual a qff 1013.2 - 1010.1 2023-11-08 02:53:00
1 2010-03-11 02:00:00 qfe debe ser menor o igual a qff 1012.7 - 1010.7 2023-11-08 02:53:00
1 2010-03-11 03:00:00 qfe debe ser menor o igual a qff 1012.2 - 1010.9 2023-11-08 02:53:00
1 2010-03-11 04:00:00 qfe debe ser menor o igual a qff 1011.9 - 1010.9 2023-11-08 02:53:00
1 2010-03-11 05:00:00 qfe debe ser menor o igual a qff 1011.3 - 1011.1 2023-11-08 02:53:00
1 2010-03-11 08:00:00 qfe debe ser menor o igual a qff 1011.3 - 1010.1 2023-11-08 02:53:00
1 2010-03-11 09:00:00 qfe debe ser menor o igual a qff 1011.9 - 1009.7 2023-11-08 02:53:00
1 2010-03-11 10:00:00 qfe debe ser menor o igual a qff 1011.6 - 1009.2 2023-11-08 02:53:00
1 2010-03-11 11:00:00 qfe debe ser menor o igual a qff 1011.5 - 1009.1 2023-11-08 02:53:00
1 2010-03-11 12:00:00 qfe debe ser menor o igual a qff 1011.4 - 1009.3 2023-11-08 02:53:00
1 2010-03-11 13:00:00 qfe debe ser menor o igual a qff 1011.1 - 1009.9 2023-11-08 02:53:00
1 2010-03-11 14:00:00 qfe debe ser menor o igual a qff 1011.0 - 1009.6 2023-11-08 02:53:00
1 2010-03-11 15:00:00 qfe debe ser menor o igual a qff 1010.9 - 1009.4 2023-11-08 02:53:00
1 2010-03-11 16:00:00 qfe debe ser menor o igual a qff 1010.6 - 1009.3 2023-11-08 02:53:00
1 2010-03-11 17:00:00 qfe debe ser menor o igual a qff 1010.3 - 1009.1 2023-11-08 02:53:00
1 2010-03-11 18:00:00 qfe debe ser menor o igual a qff 1010.3 - 1008.7 2023-11-08 02:53:00
1 2010-03-11 19:00:00 qfe debe ser menor o igual a qff 1010.7 - 1008.6 2023-11-08 02:53:00
1 2010-03-11 20:00:00 qfe debe ser menor o igual a qff 1011.1 - 1008.3 2023-11-08 02:53:00
1 2010-03-11 21:00:00 qfe debe ser menor o igual a qff 1011.4 - 1007.8 2023-11-08 02:53:00
1 2010-03-11 22:00:00 qfe debe ser menor o igual a qff 1011.7 - 1007.7 2023-11-08 02:53:00
1 2010-03-11 23:00:00 qfe debe ser menor o igual a qff 1011.5 - 1008.0 2023-11-08 02:53:00
1 2010-03-12 00:00:00 qfe debe ser menor o igual a qff 1011.4 - 1008.1 2023-11-08 02:53:00
1 2010-03-12 01:00:00 qfe debe ser menor o igual a qff 1011.3 - 1008.6 2023-11-08 02:53:00
1 2010-03-12 02:00:00 qfe debe ser menor o igual a qff 1010.7 - 1009.2 2023-11-08 02:53:00
1 2010-03-12 03:00:00 qfe debe ser menor o igual a qff 1010.3 - 1009.3 2023-11-08 02:53:00
1 2010-03-12 04:00:00 qfe debe ser menor o igual a qff 1010.5 - 1009.4 2023-11-08 02:53:00
1 2010-03-12 05:00:00 qfe debe ser menor o igual a qff 1010.9 - 1009.3 2023-11-08 02:53:00
1 2010-03-12 06:00:00 qfe debe ser menor o igual a qff 1011.1 - 1009.1 2023-11-08 02:53:00
1 2010-03-12 07:00:00 qfe debe ser menor o igual a qff 1011.4 - 1008.8 2023-11-08 02:53:00
1 2010-03-12 08:00:00 qfe debe ser menor o igual a qff 1011.9 - 1008.6 2023-11-08 02:53:00
1 2010-03-12 09:00:00 qfe debe ser menor o igual a qff 1012.2 - 1008.8 2023-11-08 02:53:00
1 2010-03-12 10:00:00 qfe debe ser menor o igual a qff 1012.0 - 1009.0 2023-11-08 02:53:00
1 2010-03-12 11:00:00 qfe debe ser menor o igual a qff 1011.8 - 1009.4 2023-11-08 02:53:00
1 2010-03-12 12:00:00 qfe debe ser menor o igual a qff 1011.7 - 1009.6 2023-11-08 02:53:00
1 2010-03-12 13:00:00 qfe debe ser menor o igual a qff 1011.9 - 1010.7 2023-11-08 02:53:00
1 2010-03-12 14:00:00 qfe debe ser menor o igual a qff 1012.0 - 1010.4 2023-11-08 02:53:00
1 2010-03-12 15:00:00 qfe debe ser menor o igual a qff 1011.8 - 1010.2 2023-11-08 02:53:00
1 2010-03-12 16:00:00 qfe debe ser menor o igual a qff 1011.6 - 1009.9 2023-11-08 02:53:00
1 2010-03-12 17:00:00 qfe debe ser menor o igual a qff 1011.8 - 1010.1 2023-11-08 02:53:00
1 2010-03-12 18:00:00 qfe debe ser menor o igual a qff 1011.9 - 1010.0 2023-11-08 02:53:00
1 2010-03-12 19:00:00 qfe debe ser menor o igual a qff 1012.2 - 1010.1 2023-11-08 02:53:00
1 2010-03-12 20:00:00 qfe debe ser menor o igual a qff 1012.9 - 1009.7 2023-11-08 02:53:00
1 2010-03-12 21:00:00 qfe debe ser menor o igual a qff 1013.5 - 1009.8 2023-11-08 02:53:00
1 2010-03-12 22:00:00 qfe debe ser menor o igual a qff 1013.9 - 1009.9 2023-11-08 02:53:00
1 2010-03-12 23:00:00 qfe debe ser menor o igual a qff 1014.3 - 1010.2 2023-11-08 02:53:00
1 2010-03-13 00:00:00 qfe debe ser menor o igual a qff 1014.0 - 1010.7 2023-11-08 02:53:00
1 2010-03-13 01:00:00 qfe debe ser menor o igual a qff 1013.9 - 1011.2 2023-11-08 02:53:00
1 2010-03-13 02:00:00 qfe debe ser menor o igual a qff 1014.0 - 1012.1 2023-11-08 02:53:00
1 2010-03-13 03:00:00 qfe debe ser menor o igual a qff 1013.7 - 1012.6 2023-11-08 02:53:00
1 2010-03-13 04:00:00 qfe debe ser menor o igual a qff 1013.4 - 1012.7 2023-11-08 02:53:00
1 2010-03-13 05:00:00 qfe debe ser menor o igual a qff 1013.4 - 1012.6 2023-11-08 02:53:00
1 2010-03-13 06:00:00 qfe debe ser menor o igual a qff 1013.0 - 1012.8 2023-11-08 02:53:00
1 2010-03-13 07:00:00 qfe debe ser menor o igual a qff 1013.0 - 1012.5 2023-11-08 02:53:00
1 2010-03-13 08:00:00 qfe debe ser menor o igual a qff 1013.7 - 1011.9 2023-11-08 02:53:00
1 2010-03-13 09:00:00 qfe debe ser menor o igual a qff 1014.0 - 1011.8 2023-11-08 02:53:00
1 2010-03-13 10:00:00 qfe debe ser menor o igual a qff 1013.9 - 1011.6 2023-11-08 02:53:00
1 2010-03-13 11:00:00 qfe debe ser menor o igual a qff 1013.8 - 1011.4 2023-11-08 02:53:00
1 2010-03-13 12:00:00 qfe debe ser menor o igual a qff 1013.7 - 1011.7 2023-11-08 02:53:00
1 2010-03-13 13:00:00 qfe debe ser menor o igual a qff 1013.8 - 1012.2 2023-11-08 02:53:00
1 2010-03-13 14:00:00 qfe debe ser menor o igual a qff 1013.7 - 1012.0 2023-11-08 02:53:00
1 2010-03-13 15:00:00 qfe debe ser menor o igual a qff 1013.2 - 1011.9 2023-11-08 02:53:00
1 2010-03-13 16:00:00 qfe debe ser menor o igual a qff 1012.7 - 1011.7 2023-11-08 02:53:00
1 2010-03-13 17:00:00 qfe debe ser menor o igual a qff 1012.5 - 1011.6 2023-11-08 02:53:00
1 2010-03-13 18:00:00 qfe debe ser menor o igual a qff 1013.0 - 1011.6 2023-11-08 02:53:00
1 2010-03-13 19:00:00 qfe debe ser menor o igual a qff 1013.6 - 1011.2 2023-11-08 02:53:00
1 2010-03-13 20:00:00 qfe debe ser menor o igual a qff 1014.4 - 1010.6 2023-11-08 02:53:00
1 2010-03-13 21:00:00 qfe debe ser menor o igual a qff 1014.9 - 1010.2 2023-11-08 02:53:00
1 2010-03-13 22:00:00 qfe debe ser menor o igual a qff 1015.6 - 1010.3 2023-11-08 02:53:00
1 2010-03-13 23:00:00 qfe debe ser menor o igual a qff 1016.3 - 1010.8 2023-11-08 02:53:00
1 2010-03-14 00:00:00 qfe debe ser menor o igual a qff 1016.5 - 1011.5 2023-11-08 02:53:00
1 2010-03-14 01:00:00 qfe debe ser menor o igual a qff 1015.9 - 1012.3 2023-11-08 02:53:00
1 2010-03-14 02:00:00 qfe debe ser menor o igual a qff 1015.7 - 1013.0 2023-11-08 02:53:00
1 2010-03-14 03:00:00 qfe debe ser menor o igual a qff 1015.1 - 1013.9 2023-11-08 02:53:00
1 2010-03-14 04:00:00 qfe debe ser menor o igual a qff 1014.8 - 1014.3 2023-11-08 02:53:00
1 2010-03-14 05:00:00 qfe debe ser menor o igual a qff 1015.0 - 1014.3 2023-11-08 02:53:00
1 2010-03-14 06:00:00 qfe debe ser menor o igual a qff 1015.3 - 1014.1 2023-11-08 02:53:00
1 2010-03-14 07:00:00 qfe debe ser menor o igual a qff 1015.8 - 1013.7 2023-11-08 02:53:00
1 2010-03-14 08:00:00 qfe debe ser menor o igual a qff 1016.0 - 1013.3 2023-11-08 02:53:00
1 2010-03-14 09:00:00 qfe debe ser menor o igual a qff 1015.8 - 1013.3 2023-11-08 02:53:00
1 2010-03-14 10:00:00 qfe debe ser menor o igual a qff 1015.7 - 1013.4 2023-11-08 02:53:00
1 2010-03-14 11:00:00 qfe debe ser menor o igual a qff 1015.5 - 1013.9 2023-11-08 02:53:00
1 2010-03-14 12:00:00 qfe debe ser menor o igual a qff 1015.0 - 1014.1 2023-11-08 02:53:00
1 2010-03-14 13:00:00 qfe debe ser menor o igual a qff 1014.5 - 1013.9 2023-11-08 02:53:00
1 2010-03-14 17:00:00 qfe debe ser menor o igual a qff 1013.2 - 1012.9 2023-11-08 02:53:00
1 2010-03-14 18:00:00 qfe debe ser menor o igual a qff 1013.8 - 1012.3 2023-11-08 02:53:00
1 2010-03-14 19:00:00 qfe debe ser menor o igual a qff 1014.4 - 1011.6 2023-11-08 02:53:00
1 2010-03-14 20:00:00 qfe debe ser menor o igual a qff 1015.2 - 1010.8 2023-11-08 02:53:00
1 2010-03-14 21:00:00 qfe debe ser menor o igual a qff 1015.3 - 1010.8 2023-11-08 02:53:00
1 2010-03-14 22:00:00 qfe debe ser menor o igual a qff 1015.1 - 1011.4 2023-11-08 02:53:00
1 2010-03-14 23:00:00 qfe debe ser menor o igual a qff 1014.8 - 1011.8 2023-11-08 02:53:00
1 2010-03-15 00:00:00 qfe debe ser menor o igual a qff 1014.4 - 1012.6 2023-11-08 02:53:00
1 2010-03-15 01:00:00 qfe debe ser menor o igual a qff 1013.7 - 1013.4 2023-11-08 02:53:00
1 2010-03-15 07:00:00 qfe debe ser menor o igual a qff 1011.6 - 1010.8 2023-11-08 02:53:00
1 2010-03-15 08:00:00 qfe debe ser menor o igual a qff 1011.8 - 1010.3 2023-11-08 02:53:00
1 2010-03-15 09:00:00 qfe debe ser menor o igual a qff 1011.5 - 1010.1 2023-11-08 02:53:00
1 2010-03-15 10:00:00 qfe debe ser menor o igual a qff 1011.5 - 1010.0 2023-11-08 02:53:00
1 2010-03-15 11:00:00 qfe debe ser menor o igual a qff 1011.2 - 1010.0 2023-11-08 02:53:00
1 2010-03-15 12:00:00 qfe debe ser menor o igual a qff 1010.7 - 1010.1 2023-11-08 02:53:00
1 2010-03-15 13:00:00 qfe debe ser menor o igual a qff 1010.4 - 1009.7 2023-11-08 02:53:00
1 2010-03-15 14:00:00 qfe debe ser menor o igual a qff 1010.0 - 1009.6 2023-11-08 02:53:00
1 2010-03-15 16:00:00 qfe debe ser menor o igual a qff 1009.3 - 1009.2 2023-11-08 02:53:00
1 2010-03-15 17:00:00 qfe debe ser menor o igual a qff 1009.4 - 1008.6 2023-11-08 02:53:00
1 2010-03-15 18:00:00 qfe debe ser menor o igual a qff 1009.7 - 1008.3 2023-11-08 02:53:00
1 2010-03-15 19:00:00 qfe debe ser menor o igual a qff 1010.1 - 1007.7 2023-11-08 02:53:00
1 2010-03-15 20:00:00 qfe debe ser menor o igual a qff 1010.6 - 1007.3 2023-11-08 02:53:00
1 2010-03-15 21:00:00 qfe debe ser menor o igual a qff 1010.8 - 1007.2 2023-11-08 02:53:00
1 2010-03-15 22:00:00 qfe debe ser menor o igual a qff 1011.1 - 1007.4 2023-11-08 02:53:00
1 2010-03-15 23:00:00 qfe debe ser menor o igual a qff 1011.0 - 1007.7 2023-11-08 02:53:00
1 2010-03-16 00:00:00 qfe debe ser menor o igual a qff 1010.5 - 1008.0 2023-11-08 02:53:00
1 2010-03-16 01:00:00 qfe debe ser menor o igual a qff 1010.4 - 1008.4 2023-11-08 02:53:00
1 2010-03-16 02:00:00 qfe debe ser menor o igual a qff 1010.3 - 1009.0 2023-11-08 02:53:00
1 2010-03-16 03:00:00 qfe debe ser menor o igual a qff 1010.2 - 1009.1 2023-11-08 02:53:00
1 2010-03-16 04:00:00 qfe debe ser menor o igual a qff 1010.2 - 1008.9 2023-11-08 02:53:00
1 2010-03-16 05:00:00 qfe debe ser menor o igual a qff 1010.3 - 1008.9 2023-11-08 02:53:00
1 2010-03-16 06:00:00 qfe debe ser menor o igual a qff 1011.0 - 1008.7 2023-11-08 02:53:00
1 2010-03-16 07:00:00 qfe debe ser menor o igual a qff 1011.8 - 1008.3 2023-11-08 02:53:00
1 2010-03-16 08:00:00 qfe debe ser menor o igual a qff 1012.5 - 1008.1 2023-11-08 02:53:00
1 2010-03-16 09:00:00 qfe debe ser menor o igual a qff 1012.9 - 1008.3 2023-11-08 02:53:00
1 2010-03-16 10:00:00 qfe debe ser menor o igual a qff 1013.0 - 1008.4 2023-11-08 02:53:00
1 2010-03-16 11:00:00 qfe debe ser menor o igual a qff 1013.0 - 1009.5 2023-11-08 02:53:00
1 2010-03-16 12:00:00 qfe debe ser menor o igual a qff 1012.7 - 1010.1 2023-11-08 02:53:00
1 2010-03-16 13:00:00 qfe debe ser menor o igual a qff 1012.5 - 1010.2 2023-11-08 02:53:00
1 2010-03-16 14:00:00 qfe debe ser menor o igual a qff 1012.4 - 1010.1 2023-11-08 02:53:00
1 2010-03-16 15:00:00 qfe debe ser menor o igual a qff 1012.0 - 1010.2 2023-11-08 02:53:00
1 2010-03-16 16:00:00 qfe debe ser menor o igual a qff 1011.9 - 1010.6 2023-11-08 02:53:00
1 2010-03-16 17:00:00 qfe debe ser menor o igual a qff 1012.2 - 1010.0 2023-11-08 02:53:00
1 2010-03-16 18:00:00 qfe debe ser menor o igual a qff 1012.8 - 1009.8 2023-11-08 02:53:00
1 2010-03-16 19:00:00 qfe debe ser menor o igual a qff 1013.7 - 1009.6 2023-11-08 02:53:00
1 2010-03-16 20:00:00 qfe debe ser menor o igual a qff 1014.3 - 1009.4 2023-11-08 02:53:00
1 2010-03-16 21:00:00 qfe debe ser menor o igual a qff 1014.7 - 1009.5 2023-11-08 02:53:00
1 2010-03-16 22:00:00 qfe debe ser menor o igual a qff 1014.7 - 1009.9 2023-11-08 02:53:00
1 2010-03-16 23:00:00 qfe debe ser menor o igual a qff 1014.6 - 1010.7 2023-11-08 02:53:00
1 2010-03-17 00:00:00 qfe debe ser menor o igual a qff 1014.3 - 1011.1 2023-11-08 02:53:00
1 2010-03-17 01:00:00 qfe debe ser menor o igual a qff 1014.3 - 1012.0 2023-11-08 02:53:00
1 2010-03-17 02:00:00 qfe debe ser menor o igual a qff 1014.3 - 1012.4 2023-11-08 02:53:00
1 2010-03-17 03:00:00 qfe debe ser menor o igual a qff 1014.4 - 1012.6 2023-11-08 02:53:00
1 2010-03-17 04:00:00 qfe debe ser menor o igual a qff 1014.3 - 1012.5 2023-11-08 02:53:00
1 2010-03-17 05:00:00 qfe debe ser menor o igual a qff 1014.3 - 1012.3 2023-11-08 02:53:00
1 2010-03-17 06:00:00 qfe debe ser menor o igual a qff 1014.8 - 1012.4 2023-11-08 02:53:00
1 2010-03-17 07:00:00 qfe debe ser menor o igual a qff 1015.7 - 1012.4 2023-11-08 02:53:00
1 2010-03-17 08:00:00 qfe debe ser menor o igual a qff 1016.4 - 1012.2 2023-11-08 02:53:00
1 2010-03-17 09:00:00 qfe debe ser menor o igual a qff 1016.5 - 1012.4 2023-11-08 02:53:00
1 2010-03-17 10:00:00 qfe debe ser menor o igual a qff 1016.5 - 1012.5 2023-11-08 02:53:00
1 2010-03-17 11:00:00 qfe debe ser menor o igual a qff 1016.2 - 1013.3 2023-11-08 02:53:00
1 2010-03-17 12:00:00 qfe debe ser menor o igual a qff 1015.7 - 1014.6 2023-11-08 02:53:00
1 2010-03-17 13:00:00 qfe debe ser menor o igual a qff 1015.5 - 1015.1 2023-11-08 02:53:00
1 2010-03-17 14:00:00 qfe debe ser menor o igual a qff 1015.2 - 1014.8 2023-11-08 02:53:00
1 2010-03-17 15:00:00 qfe debe ser menor o igual a qff 1014.7 - 1014.6 2023-11-08 02:53:00
1 2010-03-17 17:00:00 qfe debe ser menor o igual a qff 1014.2 - 1014.0 2023-11-08 02:53:00
1 2010-03-17 18:00:00 qfe debe ser menor o igual a qff 1014.5 - 1013.7 2023-11-08 02:53:00
1 2010-03-17 19:00:00 qfe debe ser menor o igual a qff 1015.0 - 1013.3 2023-11-08 02:53:00
1 2010-03-17 20:00:00 qfe debe ser menor o igual a qff 1015.4 - 1012.9 2023-11-08 02:53:00
1 2010-03-17 21:00:00 qfe debe ser menor o igual a qff 1015.6 - 1012.4 2023-11-08 02:53:00
1 2010-03-17 22:00:00 qfe debe ser menor o igual a qff 1015.3 - 1012.5 2023-11-08 02:53:00
1 2010-03-17 23:00:00 qfe debe ser menor o igual a qff 1015.1 - 1012.9 2023-11-08 02:53:00
1 2010-03-18 00:00:00 qfe debe ser menor o igual a qff 1014.8 - 1013.5 2023-11-08 02:53:00
1 2010-03-18 01:00:00 qfe debe ser menor o igual a qff 1014.5 - 1013.9 2023-11-08 02:53:00
1 2010-03-18 02:00:00 qfe debe ser menor o igual a qff 1014.4 - 1014.0 2023-11-08 02:53:00
1 2010-03-18 03:00:00 qfe debe ser menor o igual a qff 1014.1 - 1013.9 2023-11-08 02:53:00
1 2010-03-18 04:00:00 qfe debe ser menor o igual a qff 1013.9 - 1013.7 2023-11-08 02:53:00
1 2010-03-18 05:00:00 qfe debe ser menor o igual a qff 1014.2 - 1013.3 2023-11-08 02:53:00
1 2010-03-18 06:00:00 qfe debe ser menor o igual a qff 1014.2 - 1013.0 2023-11-08 02:53:00
1 2010-03-18 07:00:00 qfe debe ser menor o igual a qff 1014.6 - 1013.0 2023-11-08 02:53:00
1 2010-03-18 08:00:00 qfe debe ser menor o igual a qff 1015.4 - 1012.7 2023-11-08 02:53:00
1 2010-03-18 09:00:00 qfe debe ser menor o igual a qff 1015.7 - 1012.8 2023-11-08 02:53:00
1 2010-03-18 10:00:00 qfe debe ser menor o igual a qff 1015.8 - 1013.0 2023-11-08 02:53:00
1 2010-03-18 11:00:00 qfe debe ser menor o igual a qff 1015.4 - 1013.1 2023-11-08 02:53:00
1 2010-03-18 12:00:00 qfe debe ser menor o igual a qff 1014.6 - 1013.5 2023-11-08 02:53:00
1 2010-03-18 13:00:00 qfe debe ser menor o igual a qff 1014.3 - 1013.8 2023-11-08 02:53:00
1 2010-03-18 14:00:00 qfe debe ser menor o igual a qff 1014.1 - 1014.0 2023-11-08 02:53:00
1 2010-03-18 15:00:00 qfe debe ser menor o igual a qff 1013.8 - 1013.7 2023-11-08 02:53:00
1 2010-03-18 16:00:00 qfe debe ser menor o igual a qff 1013.5 - 1013.2 2023-11-08 02:53:00
1 2010-03-18 17:00:00 qfe debe ser menor o igual a qff 1013.6 - 1012.5 2023-11-08 02:53:00
1 2010-03-18 18:00:00 qfe debe ser menor o igual a qff 1013.9 - 1012.4 2023-11-08 02:53:00
1 2010-03-18 19:00:00 qfe debe ser menor o igual a qff 1014.3 - 1012.0 2023-11-08 02:53:00
1 2010-03-18 20:00:00 qfe debe ser menor o igual a qff 1015.0 - 1011.7 2023-11-08 02:53:00
1 2010-03-18 21:00:00 qfe debe ser menor o igual a qff 1015.6 - 1011.5 2023-11-08 02:53:00
1 2010-03-18 22:00:00 qfe debe ser menor o igual a qff 1015.6 - 1011.8 2023-11-08 02:53:00
1 2010-03-18 23:00:00 qfe debe ser menor o igual a qff 1015.5 - 1011.9 2023-11-08 02:53:00
1 2010-03-19 00:00:00 qfe debe ser menor o igual a qff 1015.3 - 1012.6 2023-11-08 02:53:00
1 2010-03-19 01:00:00 qfe debe ser menor o igual a qff 1015.0 - 1013.3 2023-11-08 02:53:00
1 2010-03-19 02:00:00 qfe debe ser menor o igual a qff 1014.8 - 1013.7 2023-11-08 02:53:00
1 2010-03-19 03:00:00 qfe debe ser menor o igual a qff 1014.7 - 1013.8 2023-11-08 02:53:00
1 2010-03-19 04:00:00 qfe debe ser menor o igual a qff 1014.6 - 1013.5 2023-11-08 02:53:00
1 2010-03-19 05:00:00 qfe debe ser menor o igual a qff 1014.7 - 1013.4 2023-11-08 02:53:00
1 2010-03-19 06:00:00 qfe debe ser menor o igual a qff 1014.7 - 1013.2 2023-11-08 02:53:00
1 2010-03-19 07:00:00 qfe debe ser menor o igual a qff 1015.1 - 1013.1 2023-11-08 02:53:00
1 2010-03-19 08:00:00 qfe debe ser menor o igual a qff 1015.4 - 1012.9 2023-11-08 02:53:00
1 2010-03-19 09:00:00 qfe debe ser menor o igual a qff 1015.3 - 1013.1 2023-11-08 02:53:00
1 2010-03-19 10:00:00 qfe debe ser menor o igual a qff 1015.1 - 1013.1 2023-11-08 02:53:00
1 2010-03-19 11:00:00 qfe debe ser menor o igual a qff 1014.8 - 1013.2 2023-11-08 02:53:00
1 2010-03-19 12:00:00 qfe debe ser menor o igual a qff 1014.5 - 1013.8 2023-11-08 02:53:00
1 2010-03-19 13:00:00 qfe debe ser menor o igual a qff 1014.1 - 1013.6 2023-11-08 02:53:00
1 2010-03-19 14:00:00 qfe debe ser menor o igual a qff 1013.7 - 1013.5 2023-11-08 02:53:00
1 2010-03-19 16:00:00 qfe debe ser menor o igual a qff 1013.3 - 1013.0 2023-11-08 02:53:00
1 2010-03-19 17:00:00 qfe debe ser menor o igual a qff 1013.4 - 1012.6 2023-11-08 02:53:00
1 2010-03-19 18:00:00 qfe debe ser menor o igual a qff 1013.8 - 1012.2 2023-11-08 02:53:00
1 2010-03-19 19:00:00 qfe debe ser menor o igual a qff 1014.3 - 1011.8 2023-11-08 02:53:00
1 2010-03-19 20:00:00 qfe debe ser menor o igual a qff 1015.1 - 1011.4 2023-11-08 02:53:00
1 2010-03-19 21:00:00 qfe debe ser menor o igual a qff 1015.9 - 1011.5 2023-11-08 02:53:00
1 2010-03-19 22:00:00 qfe debe ser menor o igual a qff 1015.9 - 1011.6 2023-11-08 02:53:00
1 2010-03-19 23:00:00 qfe debe ser menor o igual a qff 1015.7 - 1012.2 2023-11-08 02:53:00
1 2010-03-20 00:00:00 qfe debe ser menor o igual a qff 1015.8 - 1012.7 2023-11-08 02:53:00
1 2010-03-20 01:00:00 qfe debe ser menor o igual a qff 1015.9 - 1013.6 2023-11-08 02:53:00
1 2010-03-20 02:00:00 qfe debe ser menor o igual a qff 1015.8 - 1014.2 2023-11-08 02:53:00
1 2010-03-20 03:00:00 qfe debe ser menor o igual a qff 1015.7 - 1014.0 2023-11-08 02:53:00
1 2010-03-20 04:00:00 qfe debe ser menor o igual a qff 1015.3 - 1014.2 2023-11-08 02:53:00
1 2010-03-20 05:00:00 qfe debe ser menor o igual a qff 1015.0 - 1014.2 2023-11-08 02:53:00
1 2010-03-20 06:00:00 qfe debe ser menor o igual a qff 1015.1 - 1014.2 2023-11-08 02:53:00
1 2010-03-20 07:00:00 qfe debe ser menor o igual a qff 1015.8 - 1014.2 2023-11-08 02:53:00
1 2010-03-20 08:00:00 qfe debe ser menor o igual a qff 1016.7 - 1013.9 2023-11-08 02:53:00
1 2010-03-20 09:00:00 qfe debe ser menor o igual a qff 1016.6 - 1013.5 2023-11-08 02:53:00
1 2010-03-20 10:00:00 qfe debe ser menor o igual a qff 1016.6 - 1013.6 2023-11-08 02:53:00
1 2010-03-20 11:00:00 qfe debe ser menor o igual a qff 1016.0 - 1013.9 2023-11-08 02:53:00
1 2010-03-20 12:00:00 qfe debe ser menor o igual a qff 1015.3 - 1014.8 2023-11-08 02:53:00
1 2010-03-20 17:00:00 qfe debe ser menor o igual a qff 1014.0 - 1013.2 2023-11-08 02:53:00
1 2010-03-20 18:00:00 qfe debe ser menor o igual a qff 1014.5 - 1012.8 2023-11-08 02:53:00
1 2010-03-20 19:00:00 qfe debe ser menor o igual a qff 1015.1 - 1011.8 2023-11-08 02:53:00
1 2010-03-20 20:00:00 qfe debe ser menor o igual a qff 1015.6 - 1011.5 2023-11-08 02:53:00
1 2010-03-20 21:00:00 qfe debe ser menor o igual a qff 1016.0 - 1011.8 2023-11-08 02:53:00
1 2010-03-20 22:00:00 qfe debe ser menor o igual a qff 1015.9 - 1012.0 2023-11-08 02:53:00
1 2010-03-20 23:00:00 qfe debe ser menor o igual a qff 1015.7 - 1012.5 2023-11-08 02:53:00
1 2010-03-21 00:00:00 qfe debe ser menor o igual a qff 1016.0 - 1013.0 2023-11-08 02:53:00
1 2010-03-21 01:00:00 qfe debe ser menor o igual a qff 1015.9 - 1013.8 2023-11-08 02:53:00
1 2010-03-21 02:00:00 qfe debe ser menor o igual a qff 1015.3 - 1013.9 2023-11-08 02:53:00
1 2010-03-21 03:00:00 qfe debe ser menor o igual a qff 1014.9 - 1014.0 2023-11-08 02:53:00
1 2010-03-21 04:00:00 qfe debe ser menor o igual a qff 1014.5 - 1014.1 2023-11-08 02:53:00
1 2010-03-21 05:00:00 qfe debe ser menor o igual a qff 1014.5 - 1014.1 2023-11-08 02:53:00
1 2010-03-21 06:00:00 qfe debe ser menor o igual a qff 1014.6 - 1013.5 2023-11-08 02:53:00
1 2010-03-21 07:00:00 qfe debe ser menor o igual a qff 1015.1 - 1013.3 2023-11-08 02:53:00
1 2010-03-21 08:00:00 qfe debe ser menor o igual a qff 1015.0 - 1013.1 2023-11-08 02:53:00
1 2010-03-21 09:00:00 qfe debe ser menor o igual a qff 1014.1 - 1013.0 2023-11-08 02:53:00
1 2010-03-21 10:00:00 qfe debe ser menor o igual a qff 1014.1 - 1013.2 2023-11-08 02:53:00
1 2010-03-21 11:00:00 qfe debe ser menor o igual a qff 1013.6 - 1013.5 2023-11-08 02:53:00
1 2010-03-21 18:00:00 qfe debe ser menor o igual a qff 1010.9 - 1010.2 2023-11-08 02:53:00
1 2010-03-21 19:00:00 qfe debe ser menor o igual a qff 1011.7 - 1009.2 2023-11-08 02:53:00
1 2010-03-21 20:00:00 qfe debe ser menor o igual a qff 1012.3 - 1008.9 2023-11-08 02:53:00
1 2010-03-21 21:00:00 qfe debe ser menor o igual a qff 1012.4 - 1008.6 2023-11-08 02:53:00
1 2010-03-21 22:00:00 qfe debe ser menor o igual a qff 1012.3 - 1008.6 2023-11-08 02:53:00
1 2010-03-21 23:00:00 qfe debe ser menor o igual a qff 1011.7 - 1009.3 2023-11-08 02:53:00
1 2010-03-22 00:00:00 qfe debe ser menor o igual a qff 1011.3 - 1009.9 2023-11-08 02:53:00
1 2010-03-22 01:00:00 qfe debe ser menor o igual a qff 1010.8 - 1010.4 2023-11-08 02:53:00
1 2010-03-22 05:00:00 qfe debe ser menor o igual a qff 1010.4 - 1009.7 2023-11-08 02:53:00
1 2010-03-22 06:00:00 qfe debe ser menor o igual a qff 1010.4 - 1009.0 2023-11-08 02:53:00
1 2010-03-22 07:00:00 qfe debe ser menor o igual a qff 1011.4 - 1009.0 2023-11-08 02:53:00
1 2010-03-22 08:00:00 qfe debe ser menor o igual a qff 1012.2 - 1008.7 2023-11-08 02:53:00
1 2010-03-22 09:00:00 qfe debe ser menor o igual a qff 1011.7 - 1009.0 2023-11-08 02:53:00
1 2010-03-22 10:00:00 qfe debe ser menor o igual a qff 1011.0 - 1009.0 2023-11-08 02:53:00
1 2010-03-22 11:00:00 qfe debe ser menor o igual a qff 1011.4 - 1009.6 2023-11-08 02:53:00
1 2010-03-22 12:00:00 qfe debe ser menor o igual a qff 1011.9 - 1010.7 2023-11-08 02:53:00
1 2010-03-22 13:00:00 qfe debe ser menor o igual a qff 1012.7 - 1010.4 2023-11-08 02:53:00
1 2010-03-22 14:00:00 qfe debe ser menor o igual a qff 1012.3 - 1010.0 2023-11-08 02:53:00
1 2010-03-22 15:00:00 qfe debe ser menor o igual a qff 1011.9 - 1009.8 2023-11-08 02:53:00
1 2010-03-22 16:00:00 qfe debe ser menor o igual a qff 1012.2 - 1010.1 2023-11-08 02:53:00
1 2010-03-22 17:00:00 qfe debe ser menor o igual a qff 1012.5 - 1010.8 2023-11-08 02:53:00
1 2010-03-22 18:00:00 qfe debe ser menor o igual a qff 1013.3 - 1010.9 2023-11-08 02:53:00
1 2010-03-22 19:00:00 qfe debe ser menor o igual a qff 1014.1 - 1010.2 2023-11-08 02:53:00
1 2010-03-22 20:00:00 qfe debe ser menor o igual a qff 1015.2 - 1010.5 2023-11-08 02:53:00
1 2010-03-22 21:00:00 qfe debe ser menor o igual a qff 1016.0 - 1010.8 2023-11-08 02:53:00
1 2010-03-22 22:00:00 qfe debe ser menor o igual a qff 1016.1 - 1011.3 2023-11-08 02:53:00
1 2010-03-22 23:00:00 qfe debe ser menor o igual a qff 1016.4 - 1011.8 2023-11-08 02:53:00
1 2010-03-23 00:00:00 qfe debe ser menor o igual a qff 1016.9 - 1012.9 2023-11-08 02:53:00
1 2010-03-23 01:00:00 qfe debe ser menor o igual a qff 1017.4 - 1013.9 2023-11-08 02:53:00
1 2010-03-23 02:00:00 qfe debe ser menor o igual a qff 1017.6 - 1014.4 2023-11-08 02:53:00
1 2010-03-23 03:00:00 qfe debe ser menor o igual a qff 1017.4 - 1014.6 2023-11-08 02:53:00
1 2010-03-23 04:00:00 qfe debe ser menor o igual a qff 1017.2 - 1015.4 2023-11-08 02:53:00
1 2010-03-23 05:00:00 qfe debe ser menor o igual a qff 1017.6 - 1015.7 2023-11-08 02:53:00
1 2010-03-23 06:00:00 qfe debe ser menor o igual a qff 1017.5 - 1016.0 2023-11-08 02:53:00
1 2010-03-23 07:00:00 qfe debe ser menor o igual a qff 1017.3 - 1016.2 2023-11-08 02:53:00
1 2010-03-23 08:00:00 qfe debe ser menor o igual a qff 1017.6 - 1016.0 2023-11-08 02:53:00
1 2010-03-23 09:00:00 qfe debe ser menor o igual a qff 1017.6 - 1015.8 2023-11-08 02:53:00
1 2010-03-23 10:00:00 qfe debe ser menor o igual a qff 1017.4 - 1016.0 2023-11-08 02:53:00
1 2010-03-23 11:00:00 qfe debe ser menor o igual a qff 1016.5 - 1015.9 2023-11-08 02:53:00
1 2010-03-23 18:00:00 qfe debe ser menor o igual a qff 1013.6 - 1013.4 2023-11-08 02:53:00
1 2010-03-23 19:00:00 qfe debe ser menor o igual a qff 1014.1 - 1012.3 2023-11-08 02:53:00
1 2010-03-23 20:00:00 qfe debe ser menor o igual a qff 1014.5 - 1012.3 2023-11-08 02:53:00
1 2010-03-23 21:00:00 qfe debe ser menor o igual a qff 1014.8 - 1012.0 2023-11-08 02:53:00
1 2010-03-23 22:00:00 qfe debe ser menor o igual a qff 1014.7 - 1012.0 2023-11-08 02:53:00
1 2010-03-23 23:00:00 qfe debe ser menor o igual a qff 1014.5 - 1012.1 2023-11-08 02:53:00
1 2010-03-24 00:00:00 qfe debe ser menor o igual a qff 1014.7 - 1013.0 2023-11-08 02:53:00
1 2010-03-24 01:00:00 qfe debe ser menor o igual a qff 1014.4 - 1013.0 2023-11-08 02:53:00
1 2010-03-24 02:00:00 qfe debe ser menor o igual a qff 1013.8 - 1013.1 2023-11-08 02:53:00
1 2010-03-24 06:00:00 qfe debe ser menor o igual a qff 1013.3 - 1012.3 2023-11-08 02:53:00
1 2010-03-24 07:00:00 qfe debe ser menor o igual a qff 1014.2 - 1011.7 2023-11-08 02:53:00
1 2010-03-24 08:00:00 qfe debe ser menor o igual a qff 1014.7 - 1010.8 2023-11-08 02:53:00
1 2010-03-24 09:00:00 qfe debe ser menor o igual a qff 1014.3 - 1010.9 2023-11-08 02:53:00
1 2010-03-24 10:00:00 qfe debe ser menor o igual a qff 1014.0 - 1011.3 2023-11-08 02:53:00
1 2010-03-24 11:00:00 qfe debe ser menor o igual a qff 1013.5 - 1012.0 2023-11-08 02:53:00
1 2010-03-24 12:00:00 qfe debe ser menor o igual a qff 1013.0 - 1012.8 2023-11-08 02:53:00
1 2010-03-24 18:00:00 qfe debe ser menor o igual a qff 1010.9 - 1010.2 2023-11-08 02:53:00
1 2010-03-24 19:00:00 qfe debe ser menor o igual a qff 1011.5 - 1009.6 2023-11-08 02:53:00
1 2010-03-24 20:00:00 qfe debe ser menor o igual a qff 1011.9 - 1009.1 2023-11-08 02:53:00
1 2010-03-24 21:00:00 qfe debe ser menor o igual a qff 1012.3 - 1008.5 2023-11-08 02:53:00
1 2010-03-24 22:00:00 qfe debe ser menor o igual a qff 1012.3 - 1008.6 2023-11-08 02:53:00
1 2010-03-24 23:00:00 qfe debe ser menor o igual a qff 1012.3 - 1009.0 2023-11-08 02:53:00
1 2010-03-25 00:00:00 qfe debe ser menor o igual a qff 1012.2 - 1009.5 2023-11-08 02:53:00
1 2010-03-25 01:00:00 qfe debe ser menor o igual a qff 1011.8 - 1009.9 2023-11-08 02:53:00
1 2010-03-25 02:00:00 qfe debe ser menor o igual a qff 1011.3 - 1010.1 2023-11-08 02:53:00
1 2010-03-25 03:00:00 qfe debe ser menor o igual a qff 1011.1 - 1010.0 2023-11-08 02:53:00
1 2010-03-25 04:00:00 qfe debe ser menor o igual a qff 1011.0 - 1010.1 2023-11-08 02:53:00
1 2010-03-25 05:00:00 qfe debe ser menor o igual a qff 1011.1 - 1009.9 2023-11-08 02:53:00
1 2010-03-25 06:00:00 qfe debe ser menor o igual a qff 1011.3 - 1009.7 2023-11-08 02:53:00
1 2010-03-25 07:00:00 qfe debe ser menor o igual a qff 1011.8 - 1009.3 2023-11-08 02:53:00
1 2010-03-25 08:00:00 qfe debe ser menor o igual a qff 1012.2 - 1009.2 2023-11-08 02:53:00
1 2010-03-25 09:00:00 qfe debe ser menor o igual a qff 1012.0 - 1009.2 2023-11-08 02:53:00
1 2010-03-25 10:00:00 qfe debe ser menor o igual a qff 1011.9 - 1009.4 2023-11-08 02:53:00
1 2010-03-25 11:00:00 qfe debe ser menor o igual a qff 1011.6 - 1009.7 2023-11-08 02:53:00
1 2010-03-25 12:00:00 qfe debe ser menor o igual a qff 1011.4 - 1010.3 2023-11-08 02:53:00
1 2010-03-25 13:00:00 qfe debe ser menor o igual a qff 1010.9 - 1010.2 2023-11-08 02:53:00
1 2010-03-25 14:00:00 qfe debe ser menor o igual a qff 1010.6 - 1010.1 2023-11-08 02:53:00
1 2010-03-25 15:00:00 qfe debe ser menor o igual a qff 1010.4 - 1009.8 2023-11-08 02:53:00
1 2010-03-25 16:00:00 qfe debe ser menor o igual a qff 1010.4 - 1009.6 2023-11-08 02:53:00
1 2010-03-25 17:00:00 qfe debe ser menor o igual a qff 1010.8 - 1009.2 2023-11-08 02:53:00
1 2010-03-25 18:00:00 qfe debe ser menor o igual a qff 1011.7 - 1008.7 2023-11-08 02:53:00
1 2010-03-25 19:00:00 qfe debe ser menor o igual a qff 1012.5 - 1008.1 2023-11-08 02:53:00
1 2010-03-25 20:00:00 qfe debe ser menor o igual a qff 1013.2 - 1008.0 2023-11-08 02:53:00
1 2010-03-25 21:00:00 qfe debe ser menor o igual a qff 1013.8 - 1008.1 2023-11-08 02:53:00
1 2010-03-25 22:00:00 qfe debe ser menor o igual a qff 1014.1 - 1008.8 2023-11-08 02:53:00
1 2010-03-25 23:00:00 qfe debe ser menor o igual a qff 1013.9 - 1009.6 2023-11-08 02:53:00
1 2010-03-26 00:00:00 qfe debe ser menor o igual a qff 1013.8 - 1010.4 2023-11-08 02:53:00
1 2010-03-26 01:00:00 qfe debe ser menor o igual a qff 1013.8 - 1011.1 2023-11-08 02:53:00
1 2010-03-26 02:00:00 qfe debe ser menor o igual a qff 1013.9 - 1011.9 2023-11-08 02:53:00
1 2010-03-26 03:00:00 qfe debe ser menor o igual a qff 1013.8 - 1011.9 2023-11-08 02:53:00
1 2010-03-26 04:00:00 qfe debe ser menor o igual a qff 1013.8 - 1011.9 2023-11-08 02:53:00
1 2010-03-26 05:00:00 qfe debe ser menor o igual a qff 1014.1 - 1011.8 2023-11-08 02:53:00
1 2010-03-26 06:00:00 qfe debe ser menor o igual a qff 1014.3 - 1011.7 2023-11-08 02:53:00
1 2010-03-26 07:00:00 qfe debe ser menor o igual a qff 1014.7 - 1011.8 2023-11-08 02:53:00
1 2010-03-26 08:00:00 qfe debe ser menor o igual a qff 1015.3 - 1011.7 2023-11-08 02:53:00
1 2010-03-26 09:00:00 qfe debe ser menor o igual a qff 1015.2 - 1011.9 2023-11-08 02:53:00
1 2010-03-26 10:00:00 qfe debe ser menor o igual a qff 1015.0 - 1012.2 2023-11-08 02:53:00
1 2010-03-26 11:00:00 qfe debe ser menor o igual a qff 1014.7 - 1012.6 2023-11-08 02:53:00
1 2010-03-26 12:00:00 qfe debe ser menor o igual a qff 1014.2 - 1013.5 2023-11-08 02:53:00
1 2010-03-26 13:00:00 qfe debe ser menor o igual a qff 1013.7 - 1013.4 2023-11-08 02:53:00
1 2010-03-26 14:00:00 qfe debe ser menor o igual a qff 1013.2 - 1013.0 2023-11-08 02:53:00
1 2010-03-26 16:00:00 qfe debe ser menor o igual a qff 1012.8 - 1012.6 2023-11-08 02:53:00
1 2010-03-26 17:00:00 qfe debe ser menor o igual a qff 1013.2 - 1012.1 2023-11-08 02:53:00
1 2010-03-26 18:00:00 qfe debe ser menor o igual a qff 1013.5 - 1011.8 2023-11-08 02:53:00
1 2010-03-26 19:00:00 qfe debe ser menor o igual a qff 1014.1 - 1011.1 2023-11-08 02:53:00
1 2010-03-26 20:00:00 qfe debe ser menor o igual a qff 1014.8 - 1010.8 2023-11-08 02:53:00
1 2010-03-26 21:00:00 qfe debe ser menor o igual a qff 1015.0 - 1011.3 2023-11-08 02:53:00
1 2010-03-26 22:00:00 qfe debe ser menor o igual a qff 1014.8 - 1011.7 2023-11-08 02:53:00
1 2010-03-26 23:00:00 qfe debe ser menor o igual a qff 1014.6 - 1011.9 2023-11-08 02:53:00
1 2010-03-27 00:00:00 qfe debe ser menor o igual a qff 1014.3 - 1012.3 2023-11-08 02:53:00
1 2010-03-27 01:00:00 qfe debe ser menor o igual a qff 1014.3 - 1012.9 2023-11-08 02:53:00
1 2010-03-27 02:00:00 qfe debe ser menor o igual a qff 1014.2 - 1012.8 2023-11-08 02:53:00
1 2010-03-27 03:00:00 qfe debe ser menor o igual a qff 1013.9 - 1012.8 2023-11-08 02:53:00
1 2010-03-27 04:00:00 qfe debe ser menor o igual a qff 1013.5 - 1012.2 2023-11-08 02:53:00
1 2010-03-27 05:00:00 qfe debe ser menor o igual a qff 1013.4 - 1012.4 2023-11-08 02:53:00
1 2010-03-27 06:00:00 qfe debe ser menor o igual a qff 1013.5 - 1012.2 2023-11-08 02:53:00
1 2010-03-27 07:00:00 qfe debe ser menor o igual a qff 1013.9 - 1012.2 2023-11-08 02:53:00
1 2010-03-27 08:00:00 qfe debe ser menor o igual a qff 1014.0 - 1011.8 2023-11-08 02:53:00
1 2010-03-27 09:00:00 qfe debe ser menor o igual a qff 1013.7 - 1011.5 2023-11-08 02:53:00
1 2010-03-27 10:00:00 qfe debe ser menor o igual a qff 1013.5 - 1011.5 2023-11-08 02:53:00
1 2010-03-27 11:00:00 qfe debe ser menor o igual a qff 1012.9 - 1012.0 2023-11-08 02:53:00
1 2010-03-27 12:00:00 qfe debe ser menor o igual a qff 1012.6 - 1012.1 2023-11-08 02:53:00
1 2010-03-27 13:00:00 qfe debe ser menor o igual a qff 1012.1 - 1011.9 2023-11-08 02:53:00
1 2010-03-27 15:00:00 qfe debe ser menor o igual a qff 1011.7 - 1011.4 2023-11-08 02:53:00
1 2010-03-27 16:00:00 qfe debe ser menor o igual a qff 1011.7 - 1010.9 2023-11-08 02:53:00
1 2010-03-27 17:00:00 qfe debe ser menor o igual a qff 1012.0 - 1010.5 2023-11-08 02:53:00
1 2010-03-27 18:00:00 qfe debe ser menor o igual a qff 1012.6 - 1009.8 2023-11-08 02:53:00
1 2010-03-27 19:00:00 qfe debe ser menor o igual a qff 1013.4 - 1009.7 2023-11-08 02:53:00
1 2010-03-27 20:00:00 qfe debe ser menor o igual a qff 1013.8 - 1009.7 2023-11-08 02:53:00
1 2010-03-27 21:00:00 qfe debe ser menor o igual a qff 1014.2 - 1010.1 2023-11-08 02:53:00
1 2010-03-27 22:00:00 qfe debe ser menor o igual a qff 1014.1 - 1010.4 2023-11-08 02:53:00
1 2010-03-27 23:00:00 qfe debe ser menor o igual a qff 1013.8 - 1010.8 2023-11-08 02:53:00
1 2010-03-28 00:00:00 qfe debe ser menor o igual a qff 1013.4 - 1011.3 2023-11-08 02:53:00
1 2010-03-28 01:00:00 qfe debe ser menor o igual a qff 1013.4 - 1011.6 2023-11-08 02:53:00
1 2010-03-28 03:00:00 qfe debe ser menor o igual a qff 1012.9 - 1011.6 2023-11-08 02:53:00
1 2010-03-28 04:00:00 qfe debe ser menor o igual a qff 1012.4 - 1011.6 2023-11-08 02:53:00
1 2010-03-28 05:00:00 qfe debe ser menor o igual a qff 1012.3 - 1011.4 2023-11-08 02:53:00
1 2010-03-28 06:00:00 qfe debe ser menor o igual a qff 1012.5 - 1011.4 2023-11-08 02:53:00
1 2010-03-28 07:00:00 qfe debe ser menor o igual a qff 1012.9 - 1011.5 2023-11-08 02:53:00
1 2010-03-28 08:00:00 qfe debe ser menor o igual a qff 1012.9 - 1010.9 2023-11-08 02:53:00
1 2010-03-28 09:00:00 qfe debe ser menor o igual a qff 1012.7 - 1010.4 2023-11-08 02:53:00
1 2010-03-28 10:00:00 qfe debe ser menor o igual a qff 1012.3 - 1010.7 2023-11-08 02:53:00
1 2010-03-28 11:00:00 qfe debe ser menor o igual a qff 1011.8 - 1010.8 2023-11-08 02:53:00
1 2010-03-28 12:00:00 qfe debe ser menor o igual a qff 1011.4 - 1011.0 2023-11-08 02:53:00
1 2010-03-28 13:00:00 qfe debe ser menor o igual a qff 1011.2 - 1010.7 2023-11-08 02:53:00
1 2010-03-28 14:00:00 qfe debe ser menor o igual a qff 1010.7 - 1010.5 2023-11-08 02:53:00
1 2010-03-28 15:00:00 qfe debe ser menor o igual a qff 1010.3 - 1009.9 2023-11-08 02:53:00
1 2010-03-28 16:00:00 qfe debe ser menor o igual a qff 1009.9 - 1009.6 2023-11-08 02:53:00
1 2010-03-28 17:00:00 qfe debe ser menor o igual a qff 1009.6 - 1009.2 2023-11-08 02:53:00
1 2010-03-28 18:00:00 qfe debe ser menor o igual a qff 1010.0 - 1008.9 2023-11-08 02:53:00
1 2010-03-28 19:00:00 qfe debe ser menor o igual a qff 1010.5 - 1008.3 2023-11-08 02:53:00
1 2010-03-28 20:00:00 qfe debe ser menor o igual a qff 1010.9 - 1008.1 2023-11-08 02:53:00
1 2010-03-28 21:00:00 qfe debe ser menor o igual a qff 1011.0 - 1007.6 2023-11-08 02:53:00
1 2010-03-28 22:00:00 qfe debe ser menor o igual a qff 1011.7 - 1007.8 2023-11-08 02:53:00
1 2010-03-28 23:00:00 qfe debe ser menor o igual a qff 1011.9 - 1008.2 2023-11-08 02:53:00
1 2010-03-29 00:00:00 qfe debe ser menor o igual a qff 1011.3 - 1008.5 2023-11-08 02:53:00
1 2010-03-29 01:00:00 qfe debe ser menor o igual a qff 1010.8 - 1008.8 2023-11-08 02:53:00
1 2010-03-29 02:00:00 qfe debe ser menor o igual a qff 1011.1 - 1009.5 2023-11-08 02:53:00
1 2010-03-29 03:00:00 qfe debe ser menor o igual a qff 1011.0 - 1010.1 2023-11-08 02:53:00
1 2010-03-29 04:00:00 qfe debe ser menor o igual a qff 1010.6 - 1009.8 2023-11-08 02:53:00
1 2010-03-29 05:00:00 qfe debe ser menor o igual a qff 1010.6 - 1009.2 2023-11-08 02:53:00
1 2010-03-29 07:00:00 qfe debe ser menor o igual a qff 1011.0 - 1009.2 2023-11-08 02:53:00
1 2010-03-29 08:00:00 qfe debe ser menor o igual a qff 1011.2 - 1008.7 2023-11-08 02:53:00
1 2010-03-29 09:00:00 qfe debe ser menor o igual a qff 1010.7 - 1008.7 2023-11-08 02:53:00
1 2010-03-29 10:00:00 qfe debe ser menor o igual a qff 1010.3 - 1008.8 2023-11-08 02:53:00
1 2010-03-29 11:00:00 qfe debe ser menor o igual a qff 1010.0 - 1008.9 2023-11-08 02:53:00
1 2010-03-29 12:00:00 qfe debe ser menor o igual a qff 1009.5 - 1009.4 2023-11-08 02:53:00
1 2010-03-29 17:00:00 qfe debe ser menor o igual a qff 1007.5 - 1007.1 2023-11-08 02:53:00
1 2010-03-29 18:00:00 qfe debe ser menor o igual a qff 1008.0 - 1006.5 2023-11-08 02:53:00
1 2010-03-29 19:00:00 qfe debe ser menor o igual a qff 1008.7 - 1006.0 2023-11-08 02:53:00
1 2010-03-29 20:00:00 qfe debe ser menor o igual a qff 1009.7 - 1005.6 2023-11-08 02:53:00
1 2010-03-29 21:00:00 qfe debe ser menor o igual a qff 1010.4 - 1005.8 2023-11-08 02:53:00
1 2010-03-29 22:00:00 qfe debe ser menor o igual a qff 1010.5 - 1005.7 2023-11-08 02:53:00
1 2010-03-29 23:00:00 qfe debe ser menor o igual a qff 1010.5 - 1006.4 2023-11-08 02:53:00
1 2010-03-30 00:00:00 qfe debe ser menor o igual a qff 1010.1 - 1006.9 2023-11-08 02:53:00
1 2010-03-30 01:00:00 qfe debe ser menor o igual a qff 1009.9 - 1007.8 2023-11-08 02:53:00
1 2010-03-30 02:00:00 qfe debe ser menor o igual a qff 1009.6 - 1008.1 2023-11-08 02:53:00
1 2010-03-30 03:00:00 qfe debe ser menor o igual a qff 1009.0 - 1008.3 2023-11-08 02:53:00
1 2010-03-30 04:00:00 qfe debe ser menor o igual a qff 1008.5 - 1008.1 2023-11-08 02:53:00
1 2010-03-30 05:00:00 qfe debe ser menor o igual a qff 1008.4 - 1007.8 2023-11-08 02:53:00
1 2010-03-30 06:00:00 qfe debe ser menor o igual a qff 1008.3 - 1007.5 2023-11-08 02:53:00
1 2010-03-30 07:00:00 qfe debe ser menor o igual a qff 1008.4 - 1007.3 2023-11-08 02:53:00
1 2010-03-30 08:00:00 qfe debe ser menor o igual a qff 1008.8 - 1006.6 2023-11-08 02:53:00
1 2010-03-30 09:00:00 qfe debe ser menor o igual a qff 1009.1 - 1006.4 2023-11-08 02:53:00
1 2010-03-30 10:00:00 qfe debe ser menor o igual a qff 1009.0 - 1006.5 2023-11-08 02:53:00
1 2010-03-30 11:00:00 qfe debe ser menor o igual a qff 1008.9 - 1006.4 2023-11-08 02:53:00
1 2010-03-30 12:00:00 qfe debe ser menor o igual a qff 1008.6 - 1006.7 2023-11-08 02:53:00
1 2010-03-30 13:00:00 qfe debe ser menor o igual a qff 1008.4 - 1007.0 2023-11-08 02:53:00
1 2010-03-30 14:00:00 qfe debe ser menor o igual a qff 1007.9 - 1006.9 2023-11-08 02:53:00
1 2010-03-30 15:00:00 qfe debe ser menor o igual a qff 1007.7 - 1006.9 2023-11-08 02:53:00
1 2010-03-30 16:00:00 qfe debe ser menor o igual a qff 1007.9 - 1006.5 2023-11-08 02:53:00
1 2010-03-30 17:00:00 qfe debe ser menor o igual a qff 1008.3 - 1006.2 2023-11-08 02:53:00
1 2010-03-30 18:00:00 qfe debe ser menor o igual a qff 1008.9 - 1006.0 2023-11-08 02:53:00
1 2010-03-30 19:00:00 qfe debe ser menor o igual a qff 1009.6 - 1005.6 2023-11-08 02:53:00
1 2010-03-30 20:00:00 qfe debe ser menor o igual a qff 1010.3 - 1005.5 2023-11-08 02:53:00
1 2010-03-30 21:00:00 qfe debe ser menor o igual a qff 1010.8 - 1005.5 2023-11-08 02:53:00
1 2010-03-30 22:00:00 qfe debe ser menor o igual a qff 1011.0 - 1006.0 2023-11-08 02:53:00
1 2010-03-30 23:00:00 qfe debe ser menor o igual a qff 1011.3 - 1006.7 2023-11-08 02:53:00
1 2010-03-31 00:00:00 qfe debe ser menor o igual a qff 1011.5 - 1007.4 2023-11-08 02:53:00
1 2010-03-31 01:00:00 qfe debe ser menor o igual a qff 1011.4 - 1008.1 2023-11-08 02:53:00
1 2010-03-31 02:00:00 qfe debe ser menor o igual a qff 1011.2 - 1008.7 2023-11-08 02:53:00
1 2010-03-31 03:00:00 qfe debe ser menor o igual a qff 1011.0 - 1008.8 2023-11-08 02:53:00
1 2010-03-31 04:00:00 qfe debe ser menor o igual a qff 1011.2 - 1009.1 2023-11-08 02:53:00
1 2010-03-31 05:00:00 qfe debe ser menor o igual a qff 1011.7 - 1009.1 2023-11-08 02:53:00
1 2010-03-31 06:00:00 qfe debe ser menor o igual a qff 1012.2 - 1009.1 2023-11-08 02:53:00
1 2010-03-31 07:00:00 qfe debe ser menor o igual a qff 1012.9 - 1008.9 2023-11-08 02:53:00
1 2010-03-31 08:00:00 qfe debe ser menor o igual a qff 1013.7 - 1008.9 2023-11-08 02:53:00
1 2010-03-31 09:00:00 qfe debe ser menor o igual a qff 1014.1 - 1009.1 2023-11-08 02:53:00
1 2010-03-31 10:00:00 qfe debe ser menor o igual a qff 1014.4 - 1009.9 2023-11-08 02:53:00
1 2010-03-31 11:00:00 qfe debe ser menor o igual a qff 1014.6 - 1010.4 2023-11-08 02:53:00
1 2010-03-31 12:00:00 qfe debe ser menor o igual a qff 1014.5 - 1011.2 2023-11-08 02:53:00
1 2010-03-31 13:00:00 qfe debe ser menor o igual a qff 1014.3 - 1011.6 2023-11-08 02:53:00
1 2010-03-31 14:00:00 qfe debe ser menor o igual a qff 1014.3 - 1011.8 2023-11-08 02:53:00
1 2010-03-31 15:00:00 qfe debe ser menor o igual a qff 1014.2 - 1012.2 2023-11-08 02:53:00
1 2010-03-31 16:00:00 qfe debe ser menor o igual a qff 1014.2 - 1012.3 2023-11-08 02:53:00
1 2010-03-31 17:00:00 qfe debe ser menor o igual a qff 1014.6 - 1012.0 2023-11-08 02:53:00
1 2010-03-31 18:00:00 qfe debe ser menor o igual a qff 1015.4 - 1011.8 2023-11-08 02:53:00
1 2010-03-31 19:00:00 qfe debe ser menor o igual a qff 1016.3 - 1011.7 2023-11-08 02:53:00
1 2010-03-31 20:00:00 qfe debe ser menor o igual a qff 1016.9 - 1011.5 2023-11-08 02:53:00
1 2010-03-31 21:00:00 qfe debe ser menor o igual a qff 1017.2 - 1011.5 2023-11-08 02:53:00
1 2010-03-31 22:00:00 qfe debe ser menor o igual a qff 1017.4 - 1012.3 2023-11-08 02:53:00
1 2010-03-31 23:00:00 qfe debe ser menor o igual a qff 1017.3 - 1012.9 2023-11-08 02:53:00
1 2010-04-01 00:00:00 qfe debe ser menor o igual a qff 1016.8 - 1013.9 2023-11-08 02:53:00
1 2010-04-01 01:00:00 qfe debe ser menor o igual a qff 1016.4 - 1014.8 2023-11-08 02:53:00
1 2010-04-01 02:00:00 qfe debe ser menor o igual a qff 1016.2 - 1014.9 2023-11-08 02:53:00
1 2010-04-01 03:00:00 qfe debe ser menor o igual a qff 1015.9 - 1015.1 2023-11-08 02:53:00
1 2010-04-01 04:00:00 qfe debe ser menor o igual a qff 1015.4 - 1015.0 2023-11-08 02:53:00
1 2010-04-01 05:00:00 qfe debe ser menor o igual a qff 1015.4 - 1014.5 2023-11-08 02:53:00
1 2010-04-01 06:00:00 qfe debe ser menor o igual a qff 1015.7 - 1014.5 2023-11-08 02:53:00
1 2010-04-01 07:00:00 qfe debe ser menor o igual a qff 1016.1 - 1014.3 2023-11-08 02:53:00
1 2010-04-01 08:00:00 qfe debe ser menor o igual a qff 1016.9 - 1013.8 2023-11-08 02:53:00
1 2010-04-01 09:00:00 qfe debe ser menor o igual a qff 1017.0 - 1013.8 2023-11-08 02:53:00
1 2010-04-01 10:00:00 qfe debe ser menor o igual a qff 1016.9 - 1013.8 2023-11-08 02:53:00
1 2010-04-01 11:00:00 qfe debe ser menor o igual a qff 1016.6 - 1013.9 2023-11-08 02:53:00
1 2010-04-01 12:00:00 qfe debe ser menor o igual a qff 1015.9 - 1014.5 2023-11-08 02:53:00
1 2010-04-01 13:00:00 qfe debe ser menor o igual a qff 1015.1 - 1014.9 2023-11-08 02:53:00
1 2010-04-01 17:00:00 qfe debe ser menor o igual a qff 1014.7 - 1013.5 2023-11-08 02:53:00
1 2010-04-01 18:00:00 qfe debe ser menor o igual a qff 1015.3 - 1012.8 2023-11-08 02:53:00
1 2010-04-01 19:00:00 qfe debe ser menor o igual a qff 1015.8 - 1012.3 2023-11-08 02:53:00
1 2010-04-01 20:00:00 qfe debe ser menor o igual a qff 1016.3 - 1012.1 2023-11-08 02:53:00
1 2010-04-01 21:00:00 qfe debe ser menor o igual a qff 1016.5 - 1012.4 2023-11-08 02:53:00
1 2010-04-01 22:00:00 qfe debe ser menor o igual a qff 1016.4 - 1013.2 2023-11-08 02:53:00
1 2010-04-01 23:00:00 qfe debe ser menor o igual a qff 1016.4 - 1013.8 2023-11-08 02:53:00
1 2010-04-02 00:00:00 qfe debe ser menor o igual a qff 1016.0 - 1014.2 2023-11-08 02:53:00
1 2010-04-02 01:00:00 qfe debe ser menor o igual a qff 1015.9 - 1014.6 2023-11-08 02:53:00
1 2010-04-02 02:00:00 qfe debe ser menor o igual a qff 1015.8 - 1014.6 2023-11-08 02:53:00
1 2010-04-02 03:00:00 qfe debe ser menor o igual a qff 1015.4 - 1014.6 2023-11-08 02:53:00
1 2010-04-02 04:00:00 qfe debe ser menor o igual a qff 1015.1 - 1014.4 2023-11-08 02:53:00
1 2010-04-02 05:00:00 qfe debe ser menor o igual a qff 1015.0 - 1014.2 2023-11-08 02:54:00
1 2010-04-02 06:00:00 qfe debe ser menor o igual a qff 1015.3 - 1014.3 2023-11-08 02:54:00
1 2010-04-02 07:00:00 qfe debe ser menor o igual a qff 1015.8 - 1014.1 2023-11-08 02:54:00
1 2010-04-02 08:00:00 qfe debe ser menor o igual a qff 1016.0 - 1013.9 2023-11-08 02:54:00
1 2010-04-02 09:00:00 qfe debe ser menor o igual a qff 1015.8 - 1013.5 2023-11-08 02:54:00
1 2010-04-02 10:00:00 qfe debe ser menor o igual a qff 1015.3 - 1013.7 2023-11-08 02:54:00
1 2010-04-02 11:00:00 qfe debe ser menor o igual a qff 1014.6 - 1014.1 2023-11-08 02:54:00
1 2010-04-02 17:00:00 qfe debe ser menor o igual a qff 1012.6 - 1012.2 2023-11-08 02:54:00
1 2010-04-02 18:00:00 qfe debe ser menor o igual a qff 1012.9 - 1011.7 2023-11-08 02:54:00
1 2010-04-02 19:00:00 qfe debe ser menor o igual a qff 1013.7 - 1011.2 2023-11-08 02:54:00
1 2010-04-02 20:00:00 qfe debe ser menor o igual a qff 1014.3 - 1011.0 2023-11-08 02:54:00
1 2010-04-02 21:00:00 qfe debe ser menor o igual a qff 1014.5 - 1011.0 2023-11-08 02:54:00
1 2010-04-02 22:00:00 qfe debe ser menor o igual a qff 1014.6 - 1011.1 2023-11-08 02:54:00
1 2010-04-02 23:00:00 qfe debe ser menor o igual a qff 1014.7 - 1011.6 2023-11-08 02:54:00
1 2010-04-03 00:00:00 qfe debe ser menor o igual a qff 1014.4 - 1012.3 2023-11-08 02:54:00
1 2010-04-03 01:00:00 qfe debe ser menor o igual a qff 1014.1 - 1012.6 2023-11-08 02:54:00
1 2010-04-03 02:00:00 qfe debe ser menor o igual a qff 1013.8 - 1012.9 2023-11-08 02:54:00
1 2010-04-03 03:00:00 qfe debe ser menor o igual a qff 1013.5 - 1013.0 2023-11-08 02:54:00
1 2010-04-03 04:00:00 qfe debe ser menor o igual a qff 1013.2 - 1012.8 2023-11-08 02:54:00
1 2010-04-03 05:00:00 qfe debe ser menor o igual a qff 1013.0 - 1012.6 2023-11-08 02:54:00
1 2010-04-03 06:00:00 qfe debe ser menor o igual a qff 1012.9 - 1012.3 2023-11-08 02:54:00
1 2010-04-03 07:00:00 qfe debe ser menor o igual a qff 1012.9 - 1012.0 2023-11-08 02:54:00
1 2010-04-03 08:00:00 qfe debe ser menor o igual a qff 1013.2 - 1011.6 2023-11-08 02:54:00
1 2010-04-03 09:00:00 qfe debe ser menor o igual a qff 1012.7 - 1011.4 2023-11-08 02:54:00
1 2010-04-03 10:00:00 qfe debe ser menor o igual a qff 1012.2 - 1011.4 2023-11-08 02:54:00
1 2010-04-03 11:00:00 qfe debe ser menor o igual a qff 1011.6 - 1011.3 2023-11-08 02:54:00
1 2010-04-03 15:00:00 qfe debe ser menor o igual a qff 1010.2 - 1009.9 2023-11-08 02:54:00
1 2010-04-03 16:00:00 qfe debe ser menor o igual a qff 1010.2 - 1009.5 2023-11-08 02:54:00
1 2010-04-03 17:00:00 qfe debe ser menor o igual a qff 1010.3 - 1009.3 2023-11-08 02:54:00
1 2010-04-03 18:00:00 qfe debe ser menor o igual a qff 1010.9 - 1008.7 2023-11-08 02:54:00
1 2010-04-03 19:00:00 qfe debe ser menor o igual a qff 1011.7 - 1008.2 2023-11-08 02:54:00
1 2010-04-03 20:00:00 qfe debe ser menor o igual a qff 1012.2 - 1008.2 2023-11-08 02:54:00
1 2010-04-03 21:00:00 qfe debe ser menor o igual a qff 1012.5 - 1008.3 2023-11-08 02:54:00
1 2010-04-03 22:00:00 qfe debe ser menor o igual a qff 1012.6 - 1008.7 2023-11-08 02:54:00
1 2010-04-03 23:00:00 qfe debe ser menor o igual a qff 1012.5 - 1009.1 2023-11-08 02:54:00
1 2010-04-04 00:00:00 qfe debe ser menor o igual a qff 1012.3 - 1009.9 2023-11-08 02:54:00
1 2010-04-04 01:00:00 qfe debe ser menor o igual a qff 1012.2 - 1010.4 2023-11-08 02:54:00
1 2010-04-04 02:00:00 qfe debe ser menor o igual a qff 1011.9 - 1010.6 2023-11-08 02:54:00
1 2010-04-04 03:00:00 qfe debe ser menor o igual a qff 1011.5 - 1010.5 2023-11-08 02:54:00
1 2010-04-04 04:00:00 qfe debe ser menor o igual a qff 1011.1 - 1010.5 2023-11-08 02:54:00
1 2010-04-04 05:00:00 qfe debe ser menor o igual a qff 1011.1 - 1010.4 2023-11-08 02:54:00
1 2010-04-04 06:00:00 qfe debe ser menor o igual a qff 1011.3 - 1010.2 2023-11-08 02:54:00
1 2010-04-04 07:00:00 qfe debe ser menor o igual a qff 1011.9 - 1010.1 2023-11-08 02:54:00
1 2010-04-04 08:00:00 qfe debe ser menor o igual a qff 1012.4 - 1009.8 2023-11-08 02:54:00
1 2010-04-04 09:00:00 qfe debe ser menor o igual a qff 1012.6 - 1009.6 2023-11-08 02:54:00
1 2010-04-04 10:00:00 qfe debe ser menor o igual a qff 1012.5 - 1009.7 2023-11-08 02:54:00
1 2010-04-04 11:00:00 qfe debe ser menor o igual a qff 1012.3 - 1010.0 2023-11-08 02:54:00
1 2010-04-04 12:00:00 qfe debe ser menor o igual a qff 1011.9 - 1010.7 2023-11-08 02:54:00
1 2010-04-04 13:00:00 qfe debe ser menor o igual a qff 1011.3 - 1010.9 2023-11-08 02:54:00
1 2010-04-04 15:00:00 qfe debe ser menor o igual a qff 1010.7 - 1010.6 2023-11-08 02:54:00
1 2010-04-04 16:00:00 qfe debe ser menor o igual a qff 1010.8 - 1010.4 2023-11-08 02:54:00
1 2010-04-04 17:00:00 qfe debe ser menor o igual a qff 1011.1 - 1010.0 2023-11-08 02:54:00
1 2010-04-04 18:00:00 qfe debe ser menor o igual a qff 1011.6 - 1009.2 2023-11-08 02:54:00
1 2010-04-04 19:00:00 qfe debe ser menor o igual a qff 1012.3 - 1008.8 2023-11-08 02:54:00
1 2010-04-04 20:00:00 qfe debe ser menor o igual a qff 1012.9 - 1008.8 2023-11-08 02:54:00
1 2010-04-04 21:00:00 qfe debe ser menor o igual a qff 1013.0 - 1008.9 2023-11-08 02:54:00
1 2010-04-04 22:00:00 qfe debe ser menor o igual a qff 1012.9 - 1009.2 2023-11-08 02:54:00
1 2010-04-04 23:00:00 qfe debe ser menor o igual a qff 1013.0 - 1009.6 2023-11-08 02:54:00
1 2010-04-05 00:00:00 qfe debe ser menor o igual a qff 1012.6 - 1010.5 2023-11-08 02:54:00
1 2010-04-05 01:00:00 qfe debe ser menor o igual a qff 1012.4 - 1010.7 2023-11-08 02:54:00
1 2010-04-05 02:00:00 qfe debe ser menor o igual a qff 1012.0 - 1011.0 2023-11-08 02:54:00
1 2010-04-05 03:00:00 qfe debe ser menor o igual a qff 1011.5 - 1010.9 2023-11-08 02:54:00
1 2010-04-05 04:00:00 qfe debe ser menor o igual a qff 1011.4 - 1010.7 2023-11-08 02:54:00
1 2010-04-05 05:00:00 qfe debe ser menor o igual a qff 1011.4 - 1010.5 2023-11-08 02:54:00
1 2010-04-05 06:00:00 qfe debe ser menor o igual a qff 1011.4 - 1010.3 2023-11-08 02:54:00
1 2010-04-05 07:00:00 qfe debe ser menor o igual a qff 1011.6 - 1010.0 2023-11-08 02:54:00
1 2010-04-05 08:00:00 qfe debe ser menor o igual a qff 1012.2 - 1009.4 2023-11-08 02:54:00
1 2010-04-05 09:00:00 qfe debe ser menor o igual a qff 1012.4 - 1009.5 2023-11-08 02:54:00
1 2010-04-05 10:00:00 qfe debe ser menor o igual a qff 1012.4 - 1009.6 2023-11-08 02:54:00
1 2010-04-05 11:00:00 qfe debe ser menor o igual a qff 1012.5 - 1009.7 2023-11-08 02:54:00
1 2010-04-05 12:00:00 qfe debe ser menor o igual a qff 1012.4 - 1010.0 2023-11-08 02:54:00
1 2010-04-05 13:00:00 qfe debe ser menor o igual a qff 1012.5 - 1010.3 2023-11-08 02:54:00
1 2010-04-05 14:00:00 qfe debe ser menor o igual a qff 1012.5 - 1010.2 2023-11-08 02:54:00
1 2010-04-05 15:00:00 qfe debe ser menor o igual a qff 1012.5 - 1010.2 2023-11-08 02:54:00
1 2010-04-05 16:00:00 qfe debe ser menor o igual a qff 1012.7 - 1010.0 2023-11-08 02:54:00
1 2010-04-05 17:00:00 qfe debe ser menor o igual a qff 1013.2 - 1010.0 2023-11-08 02:54:00
1 2010-04-05 18:00:00 qfe debe ser menor o igual a qff 1013.6 - 1010.0 2023-11-08 02:54:00
1 2010-04-05 19:00:00 qfe debe ser menor o igual a qff 1013.9 - 1010.1 2023-11-08 02:54:00
1 2010-04-05 20:00:00 qfe debe ser menor o igual a qff 1014.3 - 1010.1 2023-11-08 02:54:00
1 2010-04-05 21:00:00 qfe debe ser menor o igual a qff 1014.3 - 1010.3 2023-11-08 02:54:00
1 2010-04-05 22:00:00 qfe debe ser menor o igual a qff 1014.3 - 1010.9 2023-11-08 02:54:00
1 2010-04-05 23:00:00 qfe debe ser menor o igual a qff 1014.3 - 1011.0 2023-11-08 02:54:00
1 2010-04-06 00:00:00 qfe debe ser menor o igual a qff 1014.3 - 1011.3 2023-11-08 02:54:00
1 2010-04-06 01:00:00 qfe debe ser menor o igual a qff 1013.9 - 1011.9 2023-11-08 02:54:00
1 2010-04-06 02:00:00 qfe debe ser menor o igual a qff 1013.5 - 1012.0 2023-11-08 02:54:00
1 2010-04-06 03:00:00 qfe debe ser menor o igual a qff 1013.1 - 1012.0 2023-11-08 02:54:00
1 2010-04-06 04:00:00 qfe debe ser menor o igual a qff 1013.1 - 1012.3 2023-11-08 02:54:00
1 2010-04-06 05:00:00 qfe debe ser menor o igual a qff 1014.0 - 1012.1 2023-11-08 02:54:00
1 2010-04-06 06:00:00 qfe debe ser menor o igual a qff 1015.3 - 1011.8 2023-11-08 02:54:00
1 2010-04-06 07:00:00 qfe debe ser menor o igual a qff 1016.3 - 1011.5 2023-11-08 02:54:00
1 2010-04-06 08:00:00 qfe debe ser menor o igual a qff 1017.0 - 1010.9 2023-11-08 02:54:00
1 2010-04-06 09:00:00 qfe debe ser menor o igual a qff 1017.2 - 1011.3 2023-11-08 02:54:00
1 2010-04-06 10:00:00 qfe debe ser menor o igual a qff 1016.6 - 1012.2 2023-11-08 02:54:00
1 2010-04-06 11:00:00 qfe debe ser menor o igual a qff 1016.2 - 1013.7 2023-11-08 02:54:00
1 2010-04-06 12:00:00 qfe debe ser menor o igual a qff 1015.8 - 1014.9 2023-11-08 02:54:00
1 2010-04-06 17:00:00 qfe debe ser menor o igual a qff 1014.3 - 1013.3 2023-11-08 02:54:00
1 2010-04-06 18:00:00 qfe debe ser menor o igual a qff 1014.8 - 1012.6 2023-11-08 02:54:00
1 2010-04-06 19:00:00 qfe debe ser menor o igual a qff 1015.0 - 1012.2 2023-11-08 02:54:00
1 2010-04-06 20:00:00 qfe debe ser menor o igual a qff 1015.2 - 1011.6 2023-11-08 02:54:00
1 2010-04-06 21:00:00 qfe debe ser menor o igual a qff 1015.1 - 1012.3 2023-11-08 02:54:00
1 2010-04-06 22:00:00 qfe debe ser menor o igual a qff 1015.0 - 1012.2 2023-11-08 02:54:00
1 2010-04-06 23:00:00 qfe debe ser menor o igual a qff 1015.1 - 1012.5 2023-11-08 02:54:00
1 2010-04-07 00:00:00 qfe debe ser menor o igual a qff 1014.8 - 1013.1 2023-11-08 02:54:00
1 2010-04-07 01:00:00 qfe debe ser menor o igual a qff 1014.2 - 1012.9 2023-11-08 02:54:00
1 2010-04-07 02:00:00 qfe debe ser menor o igual a qff 1013.7 - 1013.1 2023-11-08 02:54:00
1 2010-04-07 03:00:00 qfe debe ser menor o igual a qff 1013.5 - 1013.1 2023-11-08 02:54:00
1 2010-04-07 04:00:00 qfe debe ser menor o igual a qff 1013.5 - 1013.0 2023-11-08 02:54:00
1 2010-04-07 05:00:00 qfe debe ser menor o igual a qff 1013.6 - 1012.7 2023-11-08 02:54:00
1 2010-04-07 06:00:00 qfe debe ser menor o igual a qff 1013.9 - 1012.3 2023-11-08 02:54:00
1 2010-04-07 07:00:00 qfe debe ser menor o igual a qff 1014.2 - 1011.9 2023-11-08 02:54:00
1 2010-04-07 08:00:00 qfe debe ser menor o igual a qff 1014.7 - 1011.8 2023-11-08 02:54:00
1 2010-04-07 09:00:00 qfe debe ser menor o igual a qff 1014.9 - 1011.8 2023-11-08 02:54:00
1 2010-04-07 10:00:00 qfe debe ser menor o igual a qff 1014.6 - 1012.0 2023-11-08 02:54:00
1 2010-04-07 11:00:00 qfe debe ser menor o igual a qff 1014.0 - 1012.3 2023-11-08 02:54:00
1 2010-04-07 12:00:00 qfe debe ser menor o igual a qff 1013.7 - 1012.9 2023-11-08 02:54:00
1 2010-04-07 13:00:00 qfe debe ser menor o igual a qff 1013.5 - 1012.9 2023-11-08 02:54:00
1 2010-04-07 14:00:00 qfe debe ser menor o igual a qff 1013.3 - 1012.6 2023-11-08 02:54:00
1 2010-04-07 15:00:00 qfe debe ser menor o igual a qff 1013.4 - 1012.2 2023-11-08 02:54:00
1 2010-04-07 16:00:00 qfe debe ser menor o igual a qff 1013.6 - 1011.6 2023-11-08 02:54:00
1 2010-04-07 17:00:00 qfe debe ser menor o igual a qff 1013.6 - 1011.3 2023-11-08 02:54:00
1 2010-04-07 18:00:00 qfe debe ser menor o igual a qff 1013.8 - 1011.2 2023-11-08 02:54:00
1 2010-04-07 19:00:00 qfe debe ser menor o igual a qff 1014.3 - 1011.0 2023-11-08 02:54:00
1 2010-04-07 20:00:00 qfe debe ser menor o igual a qff 1014.8 - 1011.2 2023-11-08 02:54:00
1 2010-04-07 21:00:00 qfe debe ser menor o igual a qff 1015.1 - 1011.3 2023-11-08 02:54:00
1 2010-04-07 22:00:00 qfe debe ser menor o igual a qff 1015.1 - 1011.4 2023-11-08 02:54:00
1 2010-04-07 23:00:00 qfe debe ser menor o igual a qff 1014.9 - 1011.5 2023-11-08 02:54:00
1 2010-04-08 00:00:00 qfe debe ser menor o igual a qff 1014.7 - 1012.3 2023-11-08 02:54:00
1 2010-04-08 01:00:00 qfe debe ser menor o igual a qff 1014.4 - 1012.9 2023-11-08 02:54:00
1 2010-04-08 02:00:00 qfe debe ser menor o igual a qff 1014.2 - 1013.1 2023-11-08 02:54:00
1 2010-04-08 03:00:00 qfe debe ser menor o igual a qff 1014.0 - 1012.9 2023-11-08 02:54:00
1 2010-04-08 04:00:00 qfe debe ser menor o igual a qff 1013.6 - 1012.7 2023-11-08 02:54:00
1 2010-04-08 05:00:00 qfe debe ser menor o igual a qff 1013.6 - 1012.5 2023-11-08 02:54:00
1 2010-04-08 06:00:00 qfe debe ser menor o igual a qff 1013.6 - 1012.5 2023-11-08 02:54:00
1 2010-04-08 07:00:00 qfe debe ser menor o igual a qff 1013.8 - 1012.4 2023-11-08 02:54:00
1 2010-04-08 08:00:00 qfe debe ser menor o igual a qff 1014.1 - 1011.7 2023-11-08 02:54:00
1 2010-04-08 09:00:00 qfe debe ser menor o igual a qff 1014.0 - 1011.6 2023-11-08 02:54:00
1 2010-04-08 10:00:00 qfe debe ser menor o igual a qff 1013.6 - 1011.7 2023-11-08 02:54:00
1 2010-04-08 11:00:00 qfe debe ser menor o igual a qff 1013.4 - 1011.8 2023-11-08 02:54:00
1 2010-04-08 12:00:00 qfe debe ser menor o igual a qff 1013.1 - 1012.1 2023-11-08 02:54:00
1 2010-04-08 13:00:00 qfe debe ser menor o igual a qff 1012.7 - 1011.9 2023-11-08 02:54:00
1 2010-04-08 14:00:00 qfe debe ser menor o igual a qff 1012.2 - 1011.6 2023-11-08 02:54:00
1 2010-04-08 15:00:00 qfe debe ser menor o igual a qff 1011.8 - 1011.4 2023-11-08 02:54:00
1 2010-04-08 16:00:00 qfe debe ser menor o igual a qff 1011.7 - 1011.2 2023-11-08 02:54:00
1 2010-04-08 17:00:00 qfe debe ser menor o igual a qff 1011.7 - 1010.9 2023-11-08 02:54:00
1 2010-04-08 18:00:00 qfe debe ser menor o igual a qff 1011.9 - 1010.3 2023-11-08 02:54:00
1 2010-04-08 19:00:00 qfe debe ser menor o igual a qff 1012.4 - 1009.8 2023-11-08 02:54:00
1 2010-04-08 20:00:00 qfe debe ser menor o igual a qff 1012.9 - 1009.6 2023-11-08 02:54:00
1 2010-04-08 21:00:00 qfe debe ser menor o igual a qff 1012.9 - 1009.5 2023-11-08 02:54:00
1 2010-04-08 22:00:00 qfe debe ser menor o igual a qff 1013.1 - 1009.6 2023-11-08 02:54:00
1 2010-04-08 23:00:00 qfe debe ser menor o igual a qff 1013.1 - 1009.8 2023-11-08 02:54:00
1 2010-04-09 00:00:00 qfe debe ser menor o igual a qff 1013.0 - 1010.3 2023-11-08 02:54:00
1 2010-04-09 01:00:00 qfe debe ser menor o igual a qff 1012.9 - 1010.6 2023-11-08 02:54:00
1 2010-04-09 02:00:00 qfe debe ser menor o igual a qff 1012.9 - 1010.8 2023-11-08 02:54:00
1 2010-04-09 03:00:00 qfe debe ser menor o igual a qff 1012.8 - 1011.2 2023-11-08 02:54:00
1 2010-04-09 04:00:00 qfe debe ser menor o igual a qff 1012.7 - 1011.1 2023-11-08 02:54:00
1 2010-04-09 05:00:00 qfe debe ser menor o igual a qff 1012.9 - 1011.0 2023-11-08 02:54:00
1 2010-04-09 06:00:00 qfe debe ser menor o igual a qff 1013.2 - 1011.2 2023-11-08 02:54:00
1 2010-04-09 07:00:00 qfe debe ser menor o igual a qff 1014.0 - 1011.1 2023-11-08 02:54:00
1 2010-04-09 08:00:00 qfe debe ser menor o igual a qff 1014.9 - 1010.8 2023-11-08 02:54:00
1 2010-04-09 09:00:00 qfe debe ser menor o igual a qff 1015.2 - 1011.1 2023-11-08 02:54:00
1 2010-04-09 10:00:00 qfe debe ser menor o igual a qff 1015.2 - 1011.1 2023-11-08 02:54:00
1 2010-04-09 11:00:00 qfe debe ser menor o igual a qff 1015.0 - 1011.5 2023-11-08 02:54:00
1 2010-04-09 12:00:00 qfe debe ser menor o igual a qff 1014.5 - 1012.7 2023-11-08 02:54:00
1 2010-04-09 13:00:00 qfe debe ser menor o igual a qff 1014.3 - 1013.1 2023-11-08 02:54:00
1 2010-04-09 14:00:00 qfe debe ser menor o igual a qff 1014.0 - 1013.1 2023-11-08 02:54:00
1 2010-04-09 15:00:00 qfe debe ser menor o igual a qff 1013.9 - 1013.1 2023-11-08 02:54:00
1 2010-04-09 16:00:00 qfe debe ser menor o igual a qff 1014.3 - 1012.9 2023-11-08 02:54:00
1 2010-04-09 17:00:00 qfe debe ser menor o igual a qff 1014.5 - 1012.3 2023-11-08 02:54:00
1 2010-04-09 18:00:00 qfe debe ser menor o igual a qff 1014.9 - 1011.8 2023-11-08 02:54:00
1 2010-04-09 19:00:00 qfe debe ser menor o igual a qff 1015.2 - 1011.6 2023-11-08 02:54:00
1 2010-04-09 20:00:00 qfe debe ser menor o igual a qff 1015.4 - 1011.8 2023-11-08 02:54:00
1 2010-04-09 21:00:00 qfe debe ser menor o igual a qff 1015.7 - 1011.9 2023-11-08 02:54:00
1 2010-04-09 22:00:00 qfe debe ser menor o igual a qff 1015.5 - 1012.2 2023-11-08 02:54:00
1 2010-04-09 23:00:00 qfe debe ser menor o igual a qff 1015.3 - 1012.6 2023-11-08 02:54:00
1 2010-04-10 00:00:00 qfe debe ser menor o igual a qff 1015.2 - 1013.0 2023-11-08 02:54:00
1 2010-04-10 01:00:00 qfe debe ser menor o igual a qff 1015.3 - 1013.4 2023-11-08 02:54:00
1 2010-04-10 02:00:00 qfe debe ser menor o igual a qff 1015.0 - 1013.5 2023-11-08 02:54:00
1 2010-04-10 03:00:00 qfe debe ser menor o igual a qff 1015.0 - 1013.6 2023-11-08 02:54:00
1 2010-04-10 04:00:00 qfe debe ser menor o igual a qff 1015.1 - 1013.6 2023-11-08 02:54:00
1 2010-04-10 05:00:00 qfe debe ser menor o igual a qff 1015.3 - 1013.7 2023-11-08 02:54:00
1 2010-04-10 06:00:00 qfe debe ser menor o igual a qff 1015.7 - 1013.4 2023-11-08 02:54:00
1 2010-04-10 07:00:00 qfe debe ser menor o igual a qff 1015.9 - 1013.3 2023-11-08 02:54:00
1 2010-04-10 08:00:00 qfe debe ser menor o igual a qff 1016.4 - 1013.6 2023-11-08 02:54:00
1 2010-04-10 09:00:00 qfe debe ser menor o igual a qff 1016.8 - 1013.4 2023-11-08 02:54:00
1 2010-04-10 10:00:00 qfe debe ser menor o igual a qff 1016.4 - 1013.8 2023-11-08 02:54:00
1 2010-04-10 11:00:00 qfe debe ser menor o igual a qff 1016.1 - 1014.0 2023-11-08 02:54:00
1 2010-04-10 12:00:00 qfe debe ser menor o igual a qff 1015.8 - 1014.4 2023-11-08 02:54:00
1 2010-04-10 13:00:00 qfe debe ser menor o igual a qff 1015.1 - 1014.9 2023-11-08 02:54:00
1 2010-04-10 14:00:00 qfe debe ser menor o igual a qff 1014.7 - 1014.5 2023-11-08 02:54:00
1 2010-04-10 15:00:00 qfe debe ser menor o igual a qff 1014.5 - 1014.2 2023-11-08 02:54:00
1 2010-04-10 16:00:00 qfe debe ser menor o igual a qff 1014.8 - 1013.9 2023-11-08 02:54:00
1 2010-04-10 17:00:00 qfe debe ser menor o igual a qff 1015.1 - 1013.3 2023-11-08 02:54:00
1 2010-04-10 18:00:00 qfe debe ser menor o igual a qff 1015.5 - 1012.7 2023-11-08 02:54:00
1 2010-04-10 19:00:00 qfe debe ser menor o igual a qff 1015.9 - 1012.4 2023-11-08 02:54:00
1 2010-04-10 20:00:00 qfe debe ser menor o igual a qff 1016.4 - 1012.5 2023-11-08 02:54:00
1 2010-04-10 21:00:00 qfe debe ser menor o igual a qff 1016.7 - 1013.0 2023-11-08 02:54:00
1 2010-04-10 22:00:00 qfe debe ser menor o igual a qff 1016.7 - 1013.3 2023-11-08 02:54:00
1 2010-04-10 23:00:00 qfe debe ser menor o igual a qff 1016.4 - 1013.8 2023-11-08 02:54:00
1 2010-04-11 00:00:00 qfe debe ser menor o igual a qff 1016.2 - 1014.4 2023-11-08 02:54:00
1 2010-04-11 01:00:00 qfe debe ser menor o igual a qff 1016.1 - 1015.0 2023-11-08 02:54:00
1 2010-04-11 02:00:00 qfe debe ser menor o igual a qff 1015.6 - 1015.0 2023-11-08 02:54:00
1 2010-04-11 06:00:00 qfe debe ser menor o igual a qff 1014.3 - 1014.2 2023-11-08 02:54:00
1 2010-04-11 07:00:00 qfe debe ser menor o igual a qff 1014.2 - 1013.6 2023-11-08 02:54:00
1 2010-04-11 08:00:00 qfe debe ser menor o igual a qff 1014.3 - 1013.2 2023-11-08 02:54:00
1 2010-04-11 09:00:00 qfe debe ser menor o igual a qff 1014.1 - 1012.8 2023-11-08 02:54:00
1 2010-04-11 10:00:00 qfe debe ser menor o igual a qff 1013.8 - 1012.7 2023-11-08 02:54:00
1 2010-04-11 11:00:00 qfe debe ser menor o igual a qff 1013.4 - 1012.5 2023-11-08 02:54:00
1 2010-04-11 17:00:00 qfe debe ser menor o igual a qff 1010.8 - 1010.7 2023-11-08 02:54:00
1 2010-04-11 18:00:00 qfe debe ser menor o igual a qff 1011.0 - 1010.2 2023-11-08 02:54:00
1 2010-04-11 19:00:00 qfe debe ser menor o igual a qff 1011.7 - 1009.5 2023-11-08 02:54:00
1 2010-04-11 20:00:00 qfe debe ser menor o igual a qff 1012.3 - 1009.2 2023-11-08 02:54:00
1 2010-04-11 21:00:00 qfe debe ser menor o igual a qff 1012.8 - 1009.0 2023-11-08 02:54:00
1 2010-04-11 22:00:00 qfe debe ser menor o igual a qff 1013.0 - 1009.0 2023-11-08 02:54:00
1 2010-04-11 23:00:00 qfe debe ser menor o igual a qff 1013.4 - 1009.4 2023-11-08 02:54:00
1 2010-04-12 00:00:00 qfe debe ser menor o igual a qff 1013.1 - 1010.2 2023-11-08 02:54:00
1 2010-04-12 01:00:00 qfe debe ser menor o igual a qff 1012.7 - 1010.8 2023-11-08 02:54:00
1 2010-04-12 02:00:00 qfe debe ser menor o igual a qff 1012.3 - 1010.8 2023-11-08 02:54:00
1 2010-04-12 03:00:00 qfe debe ser menor o igual a qff 1012.0 - 1011.4 2023-11-08 02:54:00
1 2010-04-12 04:00:00 qfe debe ser menor o igual a qff 1011.7 - 1011.6 2023-11-08 02:54:00
1 2010-04-12 05:00:00 qfe debe ser menor o igual a qff 1011.8 - 1011.2 2023-11-08 02:54:00
1 2010-04-12 06:00:00 qfe debe ser menor o igual a qff 1012.0 - 1011.0 2023-11-08 02:54:00
1 2010-04-12 07:00:00 qfe debe ser menor o igual a qff 1012.4 - 1010.5 2023-11-08 02:54:00
1 2010-04-12 08:00:00 qfe debe ser menor o igual a qff 1012.9 - 1010.3 2023-11-08 02:54:00
1 2010-04-12 09:00:00 qfe debe ser menor o igual a qff 1013.0 - 1010.1 2023-11-08 02:54:00
1 2010-04-12 10:00:00 qfe debe ser menor o igual a qff 1012.8 - 1010.4 2023-11-08 02:54:00
1 2010-04-12 11:00:00 qfe debe ser menor o igual a qff 1012.3 - 1010.6 2023-11-08 02:54:00
1 2010-04-12 12:00:00 qfe debe ser menor o igual a qff 1011.8 - 1010.9 2023-11-08 02:54:00
1 2010-04-12 13:00:00 qfe debe ser menor o igual a qff 1011.3 - 1011.0 2023-11-08 02:54:00
1 2010-04-12 14:00:00 qfe debe ser menor o igual a qff 1011.0 - 1010.9 2023-11-08 02:54:00
1 2010-04-12 15:00:00 qfe debe ser menor o igual a qff 1010.8 - 1010.7 2023-11-08 02:54:00
1 2010-04-12 16:00:00 qfe debe ser menor o igual a qff 1011.0 - 1010.2 2023-11-08 02:54:00
1 2010-04-12 17:00:00 qfe debe ser menor o igual a qff 1011.4 - 1009.8 2023-11-08 02:54:00
1 2010-04-12 18:00:00 qfe debe ser menor o igual a qff 1012.1 - 1009.2 2023-11-08 02:54:00
1 2010-04-12 19:00:00 qfe debe ser menor o igual a qff 1012.9 - 1009.0 2023-11-08 02:54:00
1 2010-04-12 20:00:00 qfe debe ser menor o igual a qff 1013.2 - 1009.0 2023-11-08 02:54:00
1 2010-04-12 21:00:00 qfe debe ser menor o igual a qff 1013.6 - 1009.3 2023-11-08 02:54:00
1 2010-04-12 22:00:00 qfe debe ser menor o igual a qff 1013.9 - 1010.0 2023-11-08 02:54:00
1 2010-04-12 23:00:00 qfe debe ser menor o igual a qff 1014.1 - 1010.5 2023-11-08 02:54:00
1 2010-04-13 00:00:00 qfe debe ser menor o igual a qff 1013.8 - 1010.9 2023-11-08 02:54:00
1 2010-04-13 01:00:00 qfe debe ser menor o igual a qff 1013.7 - 1011.6 2023-11-08 02:54:00
1 2010-04-13 02:00:00 qfe debe ser menor o igual a qff 1014.1 - 1011.5 2023-11-08 02:54:00
1 2010-04-13 03:00:00 qfe debe ser menor o igual a qff 1013.8 - 1012.1 2023-11-08 02:54:00
1 2010-04-13 04:00:00 qfe debe ser menor o igual a qff 1013.8 - 1011.9 2023-11-08 02:54:00
1 2010-04-13 05:00:00 qfe debe ser menor o igual a qff 1013.9 - 1012.1 2023-11-08 02:54:00
1 2010-04-13 06:00:00 qfe debe ser menor o igual a qff 1014.0 - 1012.3 2023-11-08 02:54:00
1 2010-04-13 07:00:00 qfe debe ser menor o igual a qff 1014.4 - 1012.3 2023-11-08 02:54:00
1 2010-04-13 08:00:00 qfe debe ser menor o igual a qff 1015.1 - 1012.0 2023-11-08 02:54:00
1 2010-04-13 09:00:00 qfe debe ser menor o igual a qff 1015.2 - 1011.9 2023-11-08 02:54:00
1 2010-04-13 10:00:00 qfe debe ser menor o igual a qff 1015.3 - 1012.3 2023-11-08 02:54:00
1 2010-04-13 11:00:00 qfe debe ser menor o igual a qff 1015.3 - 1012.6 2023-11-08 02:54:00
1 2010-04-13 12:00:00 qfe debe ser menor o igual a qff 1014.7 - 1013.0 2023-11-08 02:54:00
1 2010-04-13 13:00:00 qfe debe ser menor o igual a qff 1014.0 - 1012.9 2023-11-08 02:54:00
1 2010-04-13 14:00:00 qfe debe ser menor o igual a qff 1013.7 - 1013.3 2023-11-08 02:54:00
1 2010-04-13 15:00:00 qfe debe ser menor o igual a qff 1013.7 - 1013.1 2023-11-08 02:54:00
1 2010-04-13 16:00:00 qfe debe ser menor o igual a qff 1013.8 - 1012.6 2023-11-08 02:54:00
1 2010-04-13 17:00:00 qfe debe ser menor o igual a qff 1014.0 - 1012.1 2023-11-08 02:54:00
1 2010-04-13 18:00:00 qfe debe ser menor o igual a qff 1015.1 - 1011.6 2023-11-08 02:54:00
1 2010-04-13 19:00:00 qfe debe ser menor o igual a qff 1015.9 - 1011.2 2023-11-08 02:54:00
1 2010-04-13 20:00:00 qfe debe ser menor o igual a qff 1016.4 - 1011.1 2023-11-08 02:54:00
1 2010-04-13 21:00:00 qfe debe ser menor o igual a qff 1016.6 - 1011.3 2023-11-08 02:54:00
1 2010-04-13 22:00:00 qfe debe ser menor o igual a qff 1016.7 - 1012.2 2023-11-08 02:54:00
1 2010-04-13 23:00:00 qfe debe ser menor o igual a qff 1016.8 - 1013.0 2023-11-08 02:54:00
1 2010-04-14 00:00:00 qfe debe ser menor o igual a qff 1016.5 - 1013.8 2023-11-08 02:54:00
1 2010-04-14 01:00:00 qfe debe ser menor o igual a qff 1016.1 - 1014.2 2023-11-08 02:54:00
1 2010-04-14 02:00:00 qfe debe ser menor o igual a qff 1016.0 - 1014.6 2023-11-08 02:54:00
1 2010-04-14 03:00:00 qfe debe ser menor o igual a qff 1015.6 - 1015.2 2023-11-08 02:54:00
1 2010-04-14 04:00:00 qfe debe ser menor o igual a qff 1015.4 - 1015.1 2023-11-08 02:54:00
1 2010-04-14 05:00:00 qfe debe ser menor o igual a qff 1015.5 - 1014.9 2023-11-08 02:54:00
1 2010-04-14 06:00:00 qfe debe ser menor o igual a qff 1016.0 - 1014.5 2023-11-08 02:54:00
1 2010-04-14 07:00:00 qfe debe ser menor o igual a qff 1016.7 - 1014.5 2023-11-08 02:54:00
1 2010-04-14 08:00:00 qfe debe ser menor o igual a qff 1017.5 - 1014.1 2023-11-08 02:54:00
1 2010-04-14 09:00:00 qfe debe ser menor o igual a qff 1017.9 - 1014.1 2023-11-08 02:54:00
1 2010-04-14 10:00:00 qfe debe ser menor o igual a qff 1017.9 - 1014.4 2023-11-08 02:54:00
1 2010-04-14 11:00:00 qfe debe ser menor o igual a qff 1017.8 - 1014.9 2023-11-08 02:54:00
1 2010-04-14 12:00:00 qfe debe ser menor o igual a qff 1017.4 - 1015.9 2023-11-08 02:54:00
1 2010-04-14 13:00:00 qfe debe ser menor o igual a qff 1016.8 - 1015.8 2023-11-08 02:54:00
1 2010-04-14 14:00:00 qfe debe ser menor o igual a qff 1016.4 - 1015.9 2023-11-08 02:54:00
1 2010-04-14 15:00:00 qfe debe ser menor o igual a qff 1016.3 - 1015.8 2023-11-08 02:54:00
1 2010-04-14 16:00:00 qfe debe ser menor o igual a qff 1016.3 - 1015.6 2023-11-08 02:54:00
1 2010-04-14 17:00:00 qfe debe ser menor o igual a qff 1016.3 - 1015.1 2023-11-08 02:54:00
1 2010-04-14 18:00:00 qfe debe ser menor o igual a qff 1016.7 - 1014.6 2023-11-08 02:54:00
1 2010-04-14 19:00:00 qfe debe ser menor o igual a qff 1017.3 - 1014.4 2023-11-08 02:54:00
1 2010-04-14 20:00:00 qfe debe ser menor o igual a qff 1017.7 - 1014.3 2023-11-08 02:54:00
1 2010-04-14 21:00:00 qfe debe ser menor o igual a qff 1017.7 - 1014.2 2023-11-08 02:54:00
1 2010-04-14 22:00:00 qfe debe ser menor o igual a qff 1017.7 - 1014.2 2023-11-08 02:54:00
1 2010-04-14 23:00:00 qfe debe ser menor o igual a qff 1017.4 - 1014.8 2023-11-08 02:54:00
1 2010-04-15 00:00:00 qfe debe ser menor o igual a qff 1017.1 - 1015.5 2023-11-08 02:54:00
1 2010-04-15 01:00:00 qfe debe ser menor o igual a qff 1016.7 - 1015.8 2023-11-08 02:54:00
1 2010-04-15 02:00:00 qfe debe ser menor o igual a qff 1016.2 - 1015.9 2023-11-08 02:54:00
1 2010-04-15 05:00:00 qfe debe ser menor o igual a qff 1015.5 - 1015.4 2023-11-08 02:54:00
1 2010-04-15 06:00:00 qfe debe ser menor o igual a qff 1015.4 - 1014.7 2023-11-08 02:54:00
1 2010-04-15 07:00:00 qfe debe ser menor o igual a qff 1015.7 - 1014.3 2023-11-08 02:54:00
1 2010-04-15 08:00:00 qfe debe ser menor o igual a qff 1016.3 - 1013.9 2023-11-08 02:54:00
1 2010-04-15 09:00:00 qfe debe ser menor o igual a qff 1016.5 - 1013.7 2023-11-08 02:54:00
1 2010-04-15 10:00:00 qfe debe ser menor o igual a qff 1016.4 - 1013.7 2023-11-08 02:54:00
1 2010-04-15 11:00:00 qfe debe ser menor o igual a qff 1016.1 - 1014.0 2023-11-08 02:54:00
1 2010-04-15 12:00:00 qfe debe ser menor o igual a qff 1015.7 - 1014.3 2023-11-08 02:54:00
1 2010-04-15 13:00:00 qfe debe ser menor o igual a qff 1015.1 - 1014.4 2023-11-08 02:54:00
1 2010-04-15 16:00:00 qfe debe ser menor o igual a qff 1014.1 - 1013.8 2023-11-08 02:54:00
1 2010-04-15 17:00:00 qfe debe ser menor o igual a qff 1014.1 - 1013.6 2023-11-08 02:54:00
1 2010-04-15 18:00:00 qfe debe ser menor o igual a qff 1014.3 - 1012.7 2023-11-08 02:54:00
1 2010-04-15 19:00:00 qfe debe ser menor o igual a qff 1014.4 - 1012.2 2023-11-08 02:54:00
1 2010-04-15 20:00:00 qfe debe ser menor o igual a qff 1014.7 - 1011.8 2023-11-08 02:54:00
1 2010-04-15 21:00:00 qfe debe ser menor o igual a qff 1014.7 - 1011.7 2023-11-08 02:54:00
1 2010-04-15 22:00:00 qfe debe ser menor o igual a qff 1014.4 - 1011.8 2023-11-08 02:54:00
1 2010-04-15 23:00:00 qfe debe ser menor o igual a qff 1014.0 - 1011.9 2023-11-08 02:54:00
1 2010-04-16 00:00:00 qfe debe ser menor o igual a qff 1013.9 - 1012.4 2023-11-08 02:54:00
1 2010-04-16 01:00:00 qfe debe ser menor o igual a qff 1014.1 - 1012.6 2023-11-08 02:54:00
1 2010-04-16 02:00:00 qfe debe ser menor o igual a qff 1013.5 - 1012.4 2023-11-08 02:54:00
1 2010-04-16 03:00:00 qfe debe ser menor o igual a qff 1012.7 - 1012.5 2023-11-08 02:54:00
1 2010-04-16 04:00:00 qfe debe ser menor o igual a qff 1012.6 - 1012.4 2023-11-08 02:54:00
1 2010-04-16 05:00:00 qfe debe ser menor o igual a qff 1013.0 - 1012.3 2023-11-08 02:54:00
1 2010-04-16 06:00:00 qfe debe ser menor o igual a qff 1013.5 - 1012.0 2023-11-08 02:54:00
1 2010-04-16 07:00:00 qfe debe ser menor o igual a qff 1014.0 - 1011.2 2023-11-08 02:54:00
1 2010-04-16 08:00:00 qfe debe ser menor o igual a qff 1014.7 - 1010.8 2023-11-08 02:54:00
1 2010-04-16 09:00:00 qfe debe ser menor o igual a qff 1015.3 - 1010.6 2023-11-08 02:54:00
1 2010-04-16 10:00:00 qfe debe ser menor o igual a qff 1016.1 - 1011.2 2023-11-08 02:54:00
1 2010-04-16 11:00:00 qfe debe ser menor o igual a qff 1016.2 - 1011.7 2023-11-08 02:54:00
1 2010-04-16 12:00:00 qfe debe ser menor o igual a qff 1015.6 - 1012.2 2023-11-08 02:54:00
1 2010-04-16 13:00:00 qfe debe ser menor o igual a qff 1014.9 - 1012.9 2023-11-08 02:54:00
1 2010-04-16 14:00:00 qfe debe ser menor o igual a qff 1015.2 - 1014.0 2023-11-08 02:54:00
1 2010-04-16 15:00:00 qfe debe ser menor o igual a qff 1015.5 - 1015.0 2023-11-08 02:54:00
1 2010-04-16 16:00:00 qfe debe ser menor o igual a qff 1015.9 - 1014.2 2023-11-08 02:54:00
1 2010-04-16 17:00:00 qfe debe ser menor o igual a qff 1016.4 - 1013.6 2023-11-08 02:54:00
1 2010-04-16 18:00:00 qfe debe ser menor o igual a qff 1016.6 - 1013.2 2023-11-08 02:54:00
1 2010-04-16 19:00:00 qfe debe ser menor o igual a qff 1017.2 - 1013.5 2023-11-08 02:54:00
1 2010-04-16 20:00:00 qfe debe ser menor o igual a qff 1017.5 - 1014.0 2023-11-08 02:54:00
1 2010-04-16 21:00:00 qfe debe ser menor o igual a qff 1017.1 - 1014.5 2023-11-08 02:54:00
1 2010-04-16 22:00:00 qfe debe ser menor o igual a qff 1016.5 - 1014.6 2023-11-08 02:54:00
1 2010-04-16 23:00:00 qfe debe ser menor o igual a qff 1016.3 - 1015.2 2023-11-08 02:54:00
1 2010-04-17 00:00:00 qfe debe ser menor o igual a qff 1016.2 - 1016.0 2023-11-08 02:54:00
1 2010-04-17 01:00:00 qfe debe ser menor o igual a qff 1016.1 - 1016.0 2023-11-08 02:54:00
1 2010-04-17 02:00:00 qfe debe ser menor o igual a qff 1015.8 - 1015.5 2023-11-08 02:54:00
1 2010-04-17 03:00:00 qfe debe ser menor o igual a qff 1015.8 - 1015.1 2023-11-08 02:54:00
1 2010-04-17 04:00:00 qfe debe ser menor o igual a qff 1015.5 - 1015.1 2023-11-08 02:54:00
1 2010-04-17 05:00:00 qfe debe ser menor o igual a qff 1015.4 - 1015.0 2023-11-08 02:54:00
1 2010-04-17 06:00:00 qfe debe ser menor o igual a qff 1015.4 - 1014.8 2023-11-08 02:54:00
1 2010-04-17 07:00:00 qfe debe ser menor o igual a qff 1015.7 - 1014.6 2023-11-08 02:54:00
1 2010-04-17 08:00:00 qfe debe ser menor o igual a qff 1016.0 - 1014.7 2023-11-08 02:54:00
1 2010-04-17 09:00:00 qfe debe ser menor o igual a qff 1016.3 - 1014.2 2023-11-08 02:54:00
1 2010-04-17 10:00:00 qfe debe ser menor o igual a qff 1016.3 - 1014.3 2023-11-08 02:54:00
1 2010-04-17 11:00:00 qfe debe ser menor o igual a qff 1016.2 - 1014.4 2023-11-08 02:54:00
1 2010-04-17 12:00:00 qfe debe ser menor o igual a qff 1015.8 - 1014.5 2023-11-08 02:54:00
1 2010-04-17 13:00:00 qfe debe ser menor o igual a qff 1015.2 - 1014.8 2023-11-08 02:54:00
1 2010-04-17 14:00:00 qfe debe ser menor o igual a qff 1014.9 - 1014.8 2023-11-08 02:54:00
1 2010-04-17 17:00:00 qfe debe ser menor o igual a qff 1014.9 - 1014.0 2023-11-08 02:54:00
1 2010-04-17 18:00:00 qfe debe ser menor o igual a qff 1015.5 - 1013.5 2023-11-08 02:54:00
1 2010-04-17 19:00:00 qfe debe ser menor o igual a qff 1016.2 - 1013.2 2023-11-08 02:54:00
1 2010-04-17 20:00:00 qfe debe ser menor o igual a qff 1016.7 - 1012.8 2023-11-08 02:54:00
1 2010-04-17 21:00:00 qfe debe ser menor o igual a qff 1017.0 - 1013.1 2023-11-08 02:54:00
1 2010-04-17 22:00:00 qfe debe ser menor o igual a qff 1017.3 - 1013.4 2023-11-08 02:54:00
1 2010-04-17 23:00:00 qfe debe ser menor o igual a qff 1017.4 - 1014.0 2023-11-08 02:54:00
1 2010-04-18 00:00:00 qfe debe ser menor o igual a qff 1017.5 - 1014.9 2023-11-08 02:54:00
1 2010-04-18 01:00:00 qfe debe ser menor o igual a qff 1017.8 - 1015.3 2023-11-08 02:54:00
1 2010-04-18 02:00:00 qfe debe ser menor o igual a qff 1018.0 - 1015.7 2023-11-08 02:54:00
1 2010-04-18 03:00:00 qfe debe ser menor o igual a qff 1018.0 - 1016.0 2023-11-08 02:54:00
1 2010-04-18 04:00:00 qfe debe ser menor o igual a qff 1018.1 - 1016.0 2023-11-08 02:54:00
1 2010-04-18 05:00:00 qfe debe ser menor o igual a qff 1018.3 - 1016.1 2023-11-08 02:54:00
1 2010-04-18 06:00:00 qfe debe ser menor o igual a qff 1018.8 - 1016.2 2023-11-08 02:54:00
1 2010-04-18 07:00:00 qfe debe ser menor o igual a qff 1019.2 - 1016.5 2023-11-08 02:54:00
1 2010-04-18 08:00:00 qfe debe ser menor o igual a qff 1019.8 - 1016.6 2023-11-08 02:54:00
1 2010-04-18 09:00:00 qfe debe ser menor o igual a qff 1020.3 - 1016.7 2023-11-08 02:54:00
1 2010-04-18 10:00:00 qfe debe ser menor o igual a qff 1019.8 - 1017.3 2023-11-08 02:54:00
1 2010-04-18 11:00:00 qfe debe ser menor o igual a qff 1019.2 - 1017.6 2023-11-08 02:54:00
1 2010-04-18 12:00:00 qfe debe ser menor o igual a qff 1019.1 - 1017.8 2023-11-08 02:54:00
1 2010-04-18 13:00:00 qfe debe ser menor o igual a qff 1019.4 - 1018.4 2023-11-08 02:54:00
1 2010-04-18 14:00:00 qfe debe ser menor o igual a qff 1019.1 - 1018.7 2023-11-08 02:54:00
1 2010-04-18 15:00:00 qfe debe ser menor o igual a qff 1019.0 - 1017.8 2023-11-08 02:54:00
1 2010-04-18 16:00:00 qfe debe ser menor o igual a qff 1018.9 - 1017.5 2023-11-08 02:54:00
1 2010-04-18 17:00:00 qfe debe ser menor o igual a qff 1019.1 - 1017.5 2023-11-08 02:54:00
1 2010-04-18 18:00:00 qfe debe ser menor o igual a qff 1019.4 - 1017.5 2023-11-08 02:54:00
1 2010-04-18 19:00:00 qfe debe ser menor o igual a qff 1019.8 - 1017.2 2023-11-08 02:54:00
1 2010-04-18 20:00:00 qfe debe ser menor o igual a qff 1019.9 - 1017.2 2023-11-08 02:54:00
1 2010-04-18 21:00:00 qfe debe ser menor o igual a qff 1019.8 - 1017.1 2023-11-08 02:54:00
1 2010-04-18 22:00:00 qfe debe ser menor o igual a qff 1019.7 - 1017.7 2023-11-08 02:54:00
1 2010-04-19 01:00:00 qfe debe ser menor o igual a qff 1018.9 - 1018.2 2023-11-08 02:54:00
1 2010-04-19 02:00:00 qfe debe ser menor o igual a qff 1018.4 - 1018.1 2023-11-08 02:54:00
1 2010-04-19 06:00:00 qfe debe ser menor o igual a qff 1017.9 - 1017.2 2023-11-08 02:54:00
1 2010-04-19 07:00:00 qfe debe ser menor o igual a qff 1017.9 - 1016.7 2023-11-08 02:54:00
1 2010-04-19 08:00:00 qfe debe ser menor o igual a qff 1018.5 - 1016.1 2023-11-08 02:54:00
1 2010-04-19 09:00:00 qfe debe ser menor o igual a qff 1019.3 - 1016.1 2023-11-08 02:54:00
1 2010-04-19 10:00:00 qfe debe ser menor o igual a qff 1019.3 - 1016.4 2023-11-08 02:54:00
1 2010-04-19 11:00:00 qfe debe ser menor o igual a qff 1018.9 - 1016.5 2023-11-08 02:54:00
1 2010-04-19 12:00:00 qfe debe ser menor o igual a qff 1018.2 - 1016.8 2023-11-08 02:54:00
1 2010-04-19 17:00:00 qfe debe ser menor o igual a qff 1016.8 - 1016.4 2023-11-08 02:54:00
1 2010-04-19 18:00:00 qfe debe ser menor o igual a qff 1017.4 - 1015.5 2023-11-08 02:54:00
1 2010-04-19 19:00:00 qfe debe ser menor o igual a qff 1018.0 - 1015.1 2023-11-08 02:54:00
1 2010-04-19 20:00:00 qfe debe ser menor o igual a qff 1018.2 - 1014.9 2023-11-08 02:54:00
1 2010-04-19 21:00:00 qfe debe ser menor o igual a qff 1018.4 - 1014.9 2023-11-08 02:54:00
1 2010-04-19 22:00:00 qfe debe ser menor o igual a qff 1018.2 - 1015.3 2023-11-08 02:54:00
1 2010-04-19 23:00:00 qfe debe ser menor o igual a qff 1018.3 - 1016.1 2023-11-08 02:54:00
1 2010-04-20 00:00:00 qfe debe ser menor o igual a qff 1018.0 - 1016.6 2023-11-08 02:54:00
1 2010-04-20 01:00:00 qfe debe ser menor o igual a qff 1017.6 - 1016.8 2023-11-08 02:54:00
1 2010-04-20 02:00:00 qfe debe ser menor o igual a qff 1017.4 - 1016.9 2023-11-08 02:54:00
1 2010-04-20 03:00:00 qfe debe ser menor o igual a qff 1017.2 - 1016.9 2023-11-08 02:54:00
1 2010-04-20 04:00:00 qfe debe ser menor o igual a qff 1016.9 - 1016.8 2023-11-08 02:54:00
1 2010-04-20 05:00:00 qfe debe ser menor o igual a qff 1016.9 - 1016.4 2023-11-08 02:54:00
1 2010-04-20 06:00:00 qfe debe ser menor o igual a qff 1016.7 - 1016.2 2023-11-08 02:54:00
1 2010-04-20 07:00:00 qfe debe ser menor o igual a qff 1016.7 - 1016.1 2023-11-08 02:54:00
1 2010-04-20 08:00:00 qfe debe ser menor o igual a qff 1017.2 - 1015.7 2023-11-08 02:54:00
1 2010-04-20 09:00:00 qfe debe ser menor o igual a qff 1017.6 - 1015.6 2023-11-08 02:54:00
1 2010-04-20 10:00:00 qfe debe ser menor o igual a qff 1017.8 - 1015.5 2023-11-08 02:54:00
1 2010-04-20 11:00:00 qfe debe ser menor o igual a qff 1017.9 - 1015.5 2023-11-08 02:54:00
1 2010-04-20 12:00:00 qfe debe ser menor o igual a qff 1017.4 - 1015.7 2023-11-08 02:54:00
1 2010-04-20 13:00:00 qfe debe ser menor o igual a qff 1017.2 - 1015.8 2023-11-08 02:54:00
1 2010-04-20 14:00:00 qfe debe ser menor o igual a qff 1017.5 - 1016.0 2023-11-08 02:54:00
1 2010-04-20 15:00:00 qfe debe ser menor o igual a qff 1017.5 - 1016.0 2023-11-08 02:54:00
1 2010-04-20 16:00:00 qfe debe ser menor o igual a qff 1017.1 - 1015.9 2023-11-08 02:54:00
1 2010-04-20 17:00:00 qfe debe ser menor o igual a qff 1016.9 - 1015.5 2023-11-08 02:54:00
1 2010-04-20 18:00:00 qfe debe ser menor o igual a qff 1017.3 - 1015.6 2023-11-08 02:54:00
1 2010-04-20 19:00:00 qfe debe ser menor o igual a qff 1017.8 - 1015.7 2023-11-08 02:54:00
1 2010-04-20 20:00:00 qfe debe ser menor o igual a qff 1018.0 - 1015.4 2023-11-08 02:54:00
1 2010-04-20 21:00:00 qfe debe ser menor o igual a qff 1018.2 - 1015.4 2023-11-08 02:54:00
1 2010-04-20 22:00:00 qfe debe ser menor o igual a qff 1018.1 - 1014.8 2023-11-08 02:54:00
1 2010-04-20 23:00:00 qfe debe ser menor o igual a qff 1018.3 - 1015.8 2023-11-08 02:54:00
1 2010-04-21 00:00:00 qfe debe ser menor o igual a qff 1018.2 - 1016.4 2023-11-08 02:54:00
1 2010-04-21 01:00:00 qfe debe ser menor o igual a qff 1017.9 - 1016.7 2023-11-08 02:54:00
1 2010-04-21 02:00:00 qfe debe ser menor o igual a qff 1017.6 - 1016.5 2023-11-08 02:54:00
1 2010-04-21 03:00:00 qfe debe ser menor o igual a qff 1017.3 - 1016.7 2023-11-08 02:54:00
1 2010-04-21 04:00:00 qfe debe ser menor o igual a qff 1017.2 - 1016.5 2023-11-08 02:54:00
1 2010-04-21 05:00:00 qfe debe ser menor o igual a qff 1017.3 - 1016.6 2023-11-08 02:54:00
1 2010-04-21 06:00:00 qfe debe ser menor o igual a qff 1017.6 - 1016.2 2023-11-08 02:54:00
1 2010-04-21 07:00:00 qfe debe ser menor o igual a qff 1018.0 - 1015.9 2023-11-08 02:54:00
1 2010-04-21 08:00:00 qfe debe ser menor o igual a qff 1018.7 - 1015.8 2023-11-08 02:54:00
1 2010-04-21 09:00:00 qfe debe ser menor o igual a qff 1018.9 - 1015.8 2023-11-08 02:54:00
1 2010-04-21 10:00:00 qfe debe ser menor o igual a qff 1018.6 - 1016.0 2023-11-08 02:54:00
1 2010-04-21 11:00:00 qfe debe ser menor o igual a qff 1018.3 - 1016.3 2023-11-08 02:54:00
1 2010-04-21 12:00:00 qfe debe ser menor o igual a qff 1017.8 - 1016.8 2023-11-08 02:54:00
1 2010-04-21 16:00:00 qfe debe ser menor o igual a qff 1016.4 - 1016.3 2023-11-08 02:54:00
1 2010-04-21 17:00:00 qfe debe ser menor o igual a qff 1016.6 - 1015.7 2023-11-08 02:54:00
1 2010-04-21 18:00:00 qfe debe ser menor o igual a qff 1017.0 - 1015.1 2023-11-08 02:54:00
1 2010-04-21 19:00:00 qfe debe ser menor o igual a qff 1017.5 - 1014.5 2023-11-08 02:54:00
1 2010-04-21 20:00:00 qfe debe ser menor o igual a qff 1017.7 - 1014.4 2023-11-08 02:54:00
1 2010-04-21 21:00:00 qfe debe ser menor o igual a qff 1017.7 - 1014.7 2023-11-08 02:54:00
1 2010-04-21 22:00:00 qfe debe ser menor o igual a qff 1017.5 - 1015.0 2023-11-08 02:54:00
1 2010-04-21 23:00:00 qfe debe ser menor o igual a qff 1017.4 - 1015.4 2023-11-08 02:54:00
1 2010-04-22 00:00:00 qfe debe ser menor o igual a qff 1017.1 - 1016.3 2023-11-08 02:54:00
1 2010-04-22 01:00:00 qfe debe ser menor o igual a qff 1017.2 - 1016.3 2023-11-08 02:54:00
1 2010-04-22 02:00:00 qfe debe ser menor o igual a qff 1016.9 - 1016.4 2023-11-08 02:54:00
1 2010-04-22 03:00:00 qfe debe ser menor o igual a qff 1016.6 - 1016.1 2023-11-08 02:54:00
1 2010-04-22 04:00:00 qfe debe ser menor o igual a qff 1016.5 - 1015.9 2023-11-08 02:54:00
1 2010-04-22 05:00:00 qfe debe ser menor o igual a qff 1016.7 - 1015.8 2023-11-08 02:54:00
1 2010-04-22 06:00:00 qfe debe ser menor o igual a qff 1016.9 - 1015.6 2023-11-08 02:54:00
1 2010-04-22 07:00:00 qfe debe ser menor o igual a qff 1017.5 - 1015.5 2023-11-08 02:54:00
1 2010-04-22 08:00:00 qfe debe ser menor o igual a qff 1018.5 - 1015.2 2023-11-08 02:54:00
1 2010-04-22 09:00:00 qfe debe ser menor o igual a qff 1019.0 - 1015.0 2023-11-08 02:54:00
1 2010-04-22 10:00:00 qfe debe ser menor o igual a qff 1018.5 - 1015.3 2023-11-08 02:54:00
1 2010-04-22 11:00:00 qfe debe ser menor o igual a qff 1018.0 - 1015.9 2023-11-08 02:54:00
1 2010-04-22 12:00:00 qfe debe ser menor o igual a qff 1017.3 - 1016.7 2023-11-08 02:54:00
1 2010-04-22 16:00:00 qfe debe ser menor o igual a qff 1016.8 - 1016.1 2023-11-08 02:54:00
1 2010-04-22 17:00:00 qfe debe ser menor o igual a qff 1017.2 - 1015.5 2023-11-08 02:54:00
1 2010-04-22 18:00:00 qfe debe ser menor o igual a qff 1017.8 - 1015.1 2023-11-08 02:54:00
1 2010-04-22 19:00:00 qfe debe ser menor o igual a qff 1018.3 - 1014.7 2023-11-08 02:54:00
1 2010-04-22 20:00:00 qfe debe ser menor o igual a qff 1018.4 - 1014.8 2023-11-08 02:54:00
1 2010-04-22 21:00:00 qfe debe ser menor o igual a qff 1018.5 - 1015.4 2023-11-08 02:54:00
1 2010-04-22 22:00:00 qfe debe ser menor o igual a qff 1018.5 - 1015.9 2023-11-08 02:54:00
1 2010-04-22 23:00:00 qfe debe ser menor o igual a qff 1018.6 - 1016.4 2023-11-08 02:54:00
1 2010-04-23 00:00:00 qfe debe ser menor o igual a qff 1018.6 - 1016.8 2023-11-08 02:54:00
1 2010-04-23 01:00:00 qfe debe ser menor o igual a qff 1018.5 - 1017.1 2023-11-08 02:54:00
1 2010-04-23 02:00:00 qfe debe ser menor o igual a qff 1018.3 - 1017.1 2023-11-08 02:54:00
1 2010-04-23 03:00:00 qfe debe ser menor o igual a qff 1018.0 - 1017.1 2023-11-08 02:54:00
1 2010-04-23 04:00:00 qfe debe ser menor o igual a qff 1017.6 - 1017.1 2023-11-08 02:54:00
1 2010-04-23 05:00:00 qfe debe ser menor o igual a qff 1017.7 - 1017.2 2023-11-08 02:54:00
1 2010-04-23 06:00:00 qfe debe ser menor o igual a qff 1018.0 - 1016.9 2023-11-08 02:54:00
1 2010-04-23 07:00:00 qfe debe ser menor o igual a qff 1018.2 - 1016.6 2023-11-08 02:54:00
1 2010-04-23 08:00:00 qfe debe ser menor o igual a qff 1018.4 - 1016.4 2023-11-08 02:54:00
1 2010-04-23 09:00:00 qfe debe ser menor o igual a qff 1018.4 - 1016.1 2023-11-08 02:54:00
1 2010-04-23 10:00:00 qfe debe ser menor o igual a qff 1017.8 - 1016.4 2023-11-08 02:54:00
1 2010-04-23 11:00:00 qfe debe ser menor o igual a qff 1017.2 - 1016.6 2023-11-08 02:54:00
1 2010-04-23 16:00:00 qfe debe ser menor o igual a qff 1015.3 - 1015.2 2023-11-08 02:54:00
1 2010-04-23 17:00:00 qfe debe ser menor o igual a qff 1015.7 - 1014.6 2023-11-08 02:54:00
1 2010-04-23 19:00:00 qfe debe ser menor o igual a qff 1016.6 - 1013.6 2023-11-08 02:54:00
1 2010-04-23 20:00:00 qfe debe ser menor o igual a qff 1017.1 - 1013.5 2023-11-08 02:54:00
1 2010-04-23 21:00:00 qfe debe ser menor o igual a qff 1017.3 - 1013.7 2023-11-08 02:54:00
1 2010-04-23 22:00:00 qfe debe ser menor o igual a qff 1017.3 - 1014.0 2023-11-08 02:54:00
1 2010-04-23 23:00:00 qfe debe ser menor o igual a qff 1017.3 - 1014.4 2023-11-08 02:54:00
1 2010-04-24 00:00:00 qfe debe ser menor o igual a qff 1016.9 - 1015.3 2023-11-08 02:54:00
1 2010-04-24 01:00:00 qfe debe ser menor o igual a qff 1016.5 - 1015.6 2023-11-08 02:54:00
1 2010-04-24 02:00:00 qfe debe ser menor o igual a qff 1016.1 - 1015.9 2023-11-08 02:54:00
1 2010-04-24 04:00:00 qfe debe ser menor o igual a qff 1015.7 - 1015.6 2023-11-08 02:54:00
1 2010-04-24 05:00:00 qfe debe ser menor o igual a qff 1016.3 - 1015.6 2023-11-08 02:54:00
1 2010-04-24 06:00:00 qfe debe ser menor o igual a qff 1016.7 - 1014.9 2023-11-08 02:54:00
1 2010-04-24 07:00:00 qfe debe ser menor o igual a qff 1017.1 - 1015.0 2023-11-08 02:54:00
1 2010-04-24 08:00:00 qfe debe ser menor o igual a qff 1017.6 - 1014.5 2023-11-08 02:54:00
1 2010-04-24 09:00:00 qfe debe ser menor o igual a qff 1018.0 - 1014.6 2023-11-08 02:54:00
1 2010-04-24 10:00:00 qfe debe ser menor o igual a qff 1018.3 - 1015.3 2023-11-08 02:54:00
1 2010-04-24 11:00:00 qfe debe ser menor o igual a qff 1018.2 - 1015.5 2023-11-08 02:54:00
1 2010-04-24 12:00:00 qfe debe ser menor o igual a qff 1017.9 - 1015.8 2023-11-08 02:54:00
1 2010-04-24 13:00:00 qfe debe ser menor o igual a qff 1017.6 - 1016.3 2023-11-08 02:54:00
1 2010-04-24 14:00:00 qfe debe ser menor o igual a qff 1017.4 - 1016.6 2023-11-08 02:54:00
1 2010-04-24 15:00:00 qfe debe ser menor o igual a qff 1017.3 - 1016.5 2023-11-08 02:54:00
1 2010-04-24 16:00:00 qfe debe ser menor o igual a qff 1017.5 - 1016.3 2023-11-08 02:54:00
1 2010-04-24 17:00:00 qfe debe ser menor o igual a qff 1017.4 - 1015.9 2023-11-08 02:54:00
1 2010-04-24 18:00:00 qfe debe ser menor o igual a qff 1017.7 - 1015.5 2023-11-08 02:54:00
1 2010-04-24 19:00:00 qfe debe ser menor o igual a qff 1018.0 - 1015.1 2023-11-08 02:54:00
1 2010-04-24 20:00:00 qfe debe ser menor o igual a qff 1018.3 - 1015.4 2023-11-08 02:54:00
1 2010-04-24 21:00:00 qfe debe ser menor o igual a qff 1018.4 - 1015.4 2023-11-08 02:54:00
1 2010-04-24 22:00:00 qfe debe ser menor o igual a qff 1018.4 - 1015.3 2023-11-08 02:54:00
1 2010-04-24 23:00:00 qfe debe ser menor o igual a qff 1018.2 - 1016.0 2023-11-08 02:54:00
1 2010-04-25 00:00:00 qfe debe ser menor o igual a qff 10